Time,TemperatureF,DewpointF,PressureIn,WindDirection,WindDirectionDegrees,WindSpeedMPH,WindSpeedGustMPH,Humidity,HourlyPrecipIn,Conditions,Clouds,dailyrainin,SoftwareType,DateUTC
2013-07-19 00:01:00,79.5,74.6,29.90,South,188,3.0,5.0,85,0.00,,,0.00,Wunderground v.1.15,2013-07-19 05:01:00,
2013-07-19 00:03:00,79.4,74.5,29.90,South,189,3.0,6.0,85,0.00,,,0.00,Wunderground v.1.15,2013-07-19 05:03:00,
2013-07-19 00:04:00,79.4,74.5,29.90,South,184,3.0,6.0,85,0.00,,,0.00,Wunderground v.1.15,2013-07-19 05:04:00,
2013-07-19 00:06:00,79.4,74.5,29.90,SSW,196,3.0,6.0,85,0.00,,,0.00,Wunderground v.1.15,2013-07-19 05:06:00,
2013-07-19 00:07:00,79.3,74.7,29.90,SSW,196,3.0,6.0,86,0.00,,,0.00,Wunderground v.1.15,2013-07-19 05:07:00,
2013-07-19 00:09:00,79.3,74.7,29.90,SSW,208,3.0,6.0,86,0.00,,,0.00,Wunderground v.1.15,2013-07-19 05:09:00,
2013-07-19 00:11:00,79.3,74.7,29.90,SSW,199,3.0,3.0,86,0.00,,,0.00,Wunderground v.1.15,2013-07-19 05:11:00,
2013-07-19 00:13:00,79.2,74.6,29.90,South,180,3.0,3.0,86,0.00,,,0.00,Wunderground v.1.15,2013-07-19 05:13:00,
2013-07-19 00:15:00,79.1,74.5,29.90,South,173,3.0,5.0,86,0.00,,,0.00,Wunderground v.1.15,2013-07-19 05:15:00,
2013-07-19 00:16:00,79.1,74.5,29.90,South,177,3.0,5.0,86,0.00,,,0.00,Wunderground v.1.15,2013-07-19 05:16:00,
2013-07-19 00:17:00,79.1,74.5,29.90,South,176,3.0,5.0,86,0.00,,,0.00,Wunderground v.1.15,2013-07-19 05:17:00,
2013-07-19 00:19:00,79.1,74.5,29.90,South,186,3.0,5.0,86,0.00,,,0.00,Wunderground v.1.15,2013-07-19 05:19:00,
2013-07-19 00:21:00,79.0,74.5,29.90,South,181,3.0,3.0,86,0.00,,,0.00,Wunderground v.1.15,2013-07-19 05:21:00,
2013-07-19 00:23:00,79.0,74.5,29.90,South,189,4.0,6.0,86,0.00,,,0.00,Wunderground v.1.15,2013-07-19 05:23:00,
2013-07-19 00:24:00,79.0,74.5,29.90,South,189,4.0,6.0,86,0.00,,,0.00,Wunderground v.1.15,2013-07-19 05:24:00,
2013-07-19 00:26:00,78.9,74.4,29.90,South,186,3.0,6.0,86,0.00,,,0.00,Wunderground v.1.15,2013-07-19 05:26:00,
2013-07-19 00:29:00,78.8,74.3,29.90,South,188,3.0,6.0,86,0.00,,,0.00,Wunderground v.1.15,2013-07-19 05:29:00,
2013-07-19 00:32:00,78.8,74.3,29.90,South,188,3.0,3.0,86,0.00,,,0.00,Wunderground v.1.15,2013-07-19 05:32:00,
2013-07-19 00:34:00,78.7,74.2,29.89,SSW,200,3.0,4.0,86,0.00,,,0.00,Wunderground v.1.15,2013-07-19 05:34:00,
2013-07-19 00:35:00,78.7,74.2,29.89,SSW,192,3.0,4.0,86,0.00,,,0.00,Wunderground v.1.15,2013-07-19 05:35:00,
2013-07-19 00:36:00,78.7,74.5,29.90,SSW,194,3.0,5.0,87,0.00,,,0.00,Wunderground v.1.15,2013-07-19 05:36:00,
2013-07-19 00:39:00,78.6,74.4,29.89,South,186,3.0,6.0,87,0.00,,,0.00,Wunderground v.1.15,2013-07-19 05:39:00,
2013-07-19 00:40:00,78.6,74.4,29.89,South,184,3.0,3.0,87,0.00,,,0.00,Wunderground v.1.15,2013-07-19 05:40:00,
2013-07-19 00:41:00,78.6,74.4,29.89,South,179,3.0,3.0,87,0.00,,,0.00,Wunderground v.1.15,2013-07-19 05:41:00,
2013-07-19 00:42:00,78.6,74.4,29.89,South,179,3.0,7.0,87,0.00,,,0.00,Wunderground v.1.15,2013-07-19 05:42:00,
2013-07-19 00:44:00,78.6,74.4,29.89,South,184,3.0,7.0,87,0.00,,,0.00,Wunderground v.1.15,2013-07-19 05:44:00,
2013-07-19 00:46:00,78.5,74.3,29.89,South,186,3.0,7.0,87,0.00,,,0.00,Wunderground v.1.15,2013-07-19 05:46:00,
2013-07-19 00:49:00,78.5,74.3,29.89,South,185,3.0,7.0,87,0.00,,,0.00,Wunderground v.1.15,2013-07-19 05:49:00,
2013-07-19 00:51:00,78.4,74.2,29.89,South,185,3.0,3.0,87,0.00,,,0.00,Wunderground v.1.15,2013-07-19 05:51:00,
2013-07-19 00:53:00,78.4,74.2,29.89,South,185,3.0,3.0,87,0.00,,,0.00,Wunderground v.1.15,2013-07-19 05:53:00,
2013-07-19 00:54:00,78.4,74.2,29.89,South,185,3.0,3.0,87,0.00,,,0.00,Wunderground v.1.15,2013-07-19 05:54:00,
2013-07-19 00:56:00,78.4,74.2,29.89,SSW,199,3.0,5.0,87,0.00,,,0.00,Wunderground v.1.15,2013-07-19 05:56:00,
2013-07-19 00:57:00,78.4,74.2,29.88,SSW,200,3.0,5.0,87,0.00,,,0.00,Wunderground v.1.15,2013-07-19 05:57:00,
2013-07-19 01:00:00,78.3,74.1,29.89,South,190,3.0,6.0,87,0.00,,,0.00,Wunderground v.1.15,2013-07-19 06:00:00,
2013-07-19 01:01:00,78.3,74.1,29.89,South,189,4.0,6.0,87,0.00,,,0.00,Wunderground v.1.15,2013-07-19 06:01:00,
2013-07-19 01:03:00,78.2,74.0,29.89,South,186,4.0,6.0,87,0.00,,,0.00,Wunderground v.1.15,2013-07-19 06:03:00,
2013-07-19 01:06:00,78.2,74.0,29.89,SSW,194,4.0,6.0,87,0.00,,,0.00,Wunderground v.1.15,2013-07-19 06:06:00,
2013-07-19 01:10:00,78.1,73.9,29.88,South,179,4.0,4.0,87,0.00,,,0.00,Wunderground v.1.15,2013-07-19 06:10:00,
2013-07-19 01:11:00,78.1,73.9,29.88,South,180,3.0,5.0,87,0.00,,,0.00,Wunderground v.1.15,2013-07-19 06:11:00,
2013-07-19 01:14:00,78.1,73.9,29.88,South,175,3.0,5.0,87,0.00,,,0.00,Wunderground v.1.15,2013-07-19 06:14:00,
2013-07-19 01:16:00,78.0,73.8,29.88,South,176,3.0,5.0,87,0.00,,,0.00,Wunderground v.1.15,2013-07-19 06:16:00,
2013-07-19 01:17:00,78.0,73.8,29.88,South,176,3.0,5.0,87,0.00,,,0.00,Wunderground v.1.15,2013-07-19 06:17:00,
2013-07-19 01:19:00,78.0,73.8,29.88,South,176,3.0,5.0,87,0.00,,,0.00,Wunderground v.1.15,2013-07-19 06:19:00,
2013-07-19 01:22:00,77.9,73.7,29.88,South,182,3.0,6.0,87,0.00,,,0.00,Wunderground v.1.15,2013-07-19 06:22:00,
2013-07-19 01:23:00,77.9,73.7,29.88,South,182,3.0,6.0,87,0.00,,,0.00,Wunderground v.1.15,2013-07-19 06:23:00,
2013-07-19 01:25:00,77.9,73.7,29.88,South,182,3.0,6.0,87,0.00,,,0.00,Wunderground v.1.15,2013-07-19 06:25:00,
2013-07-19 01:27:00,77.8,73.6,29.88,South,188,3.0,6.0,87,0.00,,,0.00,Wunderground v.1.15,2013-07-19 06:27:00,
2013-07-19 01:29:00,77.8,73.6,29.88,South,188,3.0,6.0,87,0.00,,,0.00,Wunderground v.1.15,2013-07-19 06:29:00,
2013-07-19 01:30:00,77.8,73.6,29.88,South,188,3.0,3.0,87,0.00,,,0.00,Wunderground v.1.15,2013-07-19 06:30:00,
2013-07-19 01:33:00,77.7,73.5,29.88,South,189,2.0,4.0,87,0.00,,,0.00,Wunderground v.1.15,2013-07-19 06:33:00,
2013-07-19 01:34:00,77.7,73.5,29.88,South,189,2.0,4.0,87,0.00,,,0.00,Wunderground v.1.15,2013-07-19 06:34:00,
2013-07-19 01:37:00,77.6,73.4,29.88,South,190,3.0,4.0,87,0.00,,,0.00,Wunderground v.1.15,2013-07-19 06:37:00,
2013-07-19 01:38:00,77.6,73.4,29.88,South,190,3.0,4.0,87,0.00,,,0.00,Wunderground v.1.15,2013-07-19 06:38:00,
2013-07-19 01:39:00,77.6,73.4,29.88,South,188,3.0,4.0,87,0.00,,,0.00,Wunderground v.1.15,2013-07-19 06:39:00,
2013-07-19 01:40:00,77.6,73.4,29.88,South,188,3.0,3.0,87,0.00,,,0.00,Wunderground v.1.15,2013-07-19 06:40:00,
2013-07-19 01:44:00,77.5,73.7,29.88,South,190,3.0,4.0,88,0.00,,,0.00,Wunderground v.1.15,2013-07-19 06:44:00,
2013-07-19 01:45:00,77.5,73.7,29.88,South,189,3.0,4.0,88,0.00,,,0.00,Wunderground v.1.15,2013-07-19 06:45:00,
2013-07-19 01:46:00,77.5,73.7,29.88,South,189,3.0,4.0,88,0.00,,,0.00,Wunderground v.1.15,2013-07-19 06:46:00,
2013-07-19 01:47:00,77.5,73.7,29.88,South,189,2.0,4.0,88,0.00,,,0.00,Wunderground v.1.15,2013-07-19 06:47:00,
2013-07-19 01:51:00,77.4,73.6,29.88,South,189,2.0,3.0,88,0.00,,,0.00,Wunderground v.1.15,2013-07-19 06:51:00,
2013-07-19 01:53:00,77.3,73.5,29.88,South,190,2.0,4.0,88,0.00,,,0.00,Wunderground v.1.15,2013-07-19 06:53:00,
2013-07-19 01:54:00,77.3,73.5,29.88,South,190,2.0,4.0,88,0.00,,,0.00,Wunderground v.1.15,2013-07-19 06:54:00,
2013-07-19 01:56:00,77.3,73.5,29.87,South,188,2.0,4.0,88,0.00,,,0.00,Wunderground v.1.15,2013-07-19 06:56:00,
2013-07-19 01:58:00,77.3,73.5,29.88,South,188,3.0,4.0,88,0.00,,,0.00,Wunderground v.1.15,2013-07-19 06:58:00,
2013-07-19 02:01:00,77.2,73.4,29.88,SSW,195,3.0,3.0,88,0.00,,,0.00,Wunderground v.1.15,2013-07-19 07:01:00,
2013-07-19 02:02:00,77.2,73.4,29.87,SSW,195,3.0,3.0,88,0.00,,,0.00,Wunderground v.1.15,2013-07-19 07:02:00,
2013-07-19 02:03:00,77.2,73.4,29.87,SSW,196,3.0,3.0,88,0.00,,,0.00,Wunderground v.1.15,2013-07-19 07:03:00,
2013-07-19 02:04:00,77.2,73.4,29.87,SSW,196,3.0,3.0,88,0.00,,,0.00,Wunderground v.1.15,2013-07-19 07:04:00,
2013-07-19 02:07:00,77.1,73.3,29.87,SSW,196,2.0,3.0,88,0.00,,,0.00,Wunderground v.1.15,2013-07-19 07:07:00,
2013-07-19 02:09:00,77.1,73.3,29.87,SSW,196,2.0,3.0,88,0.00,,,0.00,Wunderground v.1.15,2013-07-19 07:09:00,
2013-07-19 02:10:00,77.1,73.3,29.87,SSW,196,2.0,2.0,88,0.00,,,0.00,Wunderground v.1.15,2013-07-19 07:10:00,
2013-07-19 02:12:00,77.1,73.3,29.87,SSW,196,1.0,2.0,88,0.00,,,0.00,Wunderground v.1.15,2013-07-19 07:12:00,
2013-07-19 02:14:00,77.0,73.2,29.87,SSW,194,2.0,5.0,88,0.00,,,0.00,Wunderground v.1.15,2013-07-19 07:14:00,
2013-07-19 02:16:00,77.0,73.2,29.87,SSW,196,2.0,5.0,88,0.00,,,0.00,Wunderground v.1.15,2013-07-19 07:16:00,
2013-07-19 02:18:00,77.0,73.2,29.87,South,180,2.0,5.0,88,0.00,,,0.00,Wunderground v.1.15,2013-07-19 07:18:00,
2013-07-19 02:19:00,76.9,73.1,29.87,South,186,2.0,5.0,88,0.00,,,0.00,Wunderground v.1.15,2013-07-19 07:19:00,
2013-07-19 02:21:00,76.9,73.1,29.87,South,178,2.0,3.0,88,0.00,,,0.00,Wunderground v.1.15,2013-07-19 07:21:00,
2013-07-19 02:22:00,76.9,73.1,29.87,South,178,3.0,5.0,88,0.00,,,0.00,Wunderground v.1.15,2013-07-19 07:22:00,
2013-07-19 02:27:00,76.9,73.1,29.87,South,175,3.0,5.0,88,0.00,,,0.00,Wunderground v.1.15,2013-07-19 07:27:00,
2013-07-19 02:30:00,76.9,73.1,29.87,South,176,2.0,3.0,88,0.00,,,0.00,Wunderground v.1.15,2013-07-19 07:30:00,
2013-07-19 02:31:00,76.9,73.1,29.87,South,175,3.0,4.0,88,0.00,,,0.00,Wunderground v.1.15,2013-07-19 07:31:00,
2013-07-19 02:35:00,76.9,73.1,29.87,SSW,196,3.0,8.0,88,0.00,,,0.00,Wunderground v.1.15,2013-07-19 07:35:00,
2013-07-19 02:36:00,76.9,73.1,29.87,SSW,196,3.0,8.0,88,0.00,,,0.00,Wunderground v.1.15,2013-07-19 07:36:00,
2013-07-19 02:37:00,76.9,73.1,29.87,SSW,196,3.0,8.0,88,0.00,,,0.00,Wunderground v.1.15,2013-07-19 07:37:00,
2013-07-19 02:40:00,76.8,73.0,29.87,South,186,3.0,3.0,88,0.00,,,0.00,Wunderground v.1.15,2013-07-19 07:40:00,
2013-07-19 02:41:00,76.8,73.0,29.87,South,187,3.0,3.0,88,0.00,,,0.00,Wunderground v.1.15,2013-07-19 07:41:00,
2013-07-19 02:42:00,76.8,73.0,29.87,South,186,3.0,3.0,88,0.00,,,0.00,Wunderground v.1.15,2013-07-19 07:42:00,
2013-07-19 02:44:00,76.8,73.0,29.87,South,187,2.0,3.0,88,0.00,,,0.00,Wunderground v.1.15,2013-07-19 07:44:00,
2013-07-19 02:47:00,76.7,72.9,29.87,South,187,2.0,3.0,88,0.00,,,0.00,Wunderground v.1.15,2013-07-19 07:47:00,
2013-07-19 02:48:00,76.7,72.9,29.87,South,186,2.0,3.0,88,0.00,,,0.00,Wunderground v.1.15,2013-07-19 07:48:00,
2013-07-19 02:49:00,76.7,72.9,29.87,South,186,2.0,4.0,88,0.00,,,0.00,Wunderground v.1.15,2013-07-19 07:49:00,
2013-07-19 02:51:00,76.6,72.8,29.87,South,185,2.0,4.0,88,0.00,,,0.00,Wunderground v.1.15,2013-07-19 07:51:00,
2013-07-19 02:53:00,76.6,72.8,29.87,South,184,2.0,5.0,88,0.00,,,0.00,Wunderground v.1.15,2013-07-19 07:53:00,
2013-07-19 02:54:00,76.6,72.8,29.86,South,184,2.0,5.0,88,0.00,,,0.00,Wunderground v.1.15,2013-07-19 07:54:00,
2013-07-19 02:57:00,76.6,73.1,29.86,South,181,2.0,5.0,89,0.00,,,0.00,Wunderground v.1.15,2013-07-19 07:57:00,
2013-07-19 02:58:00,76.6,73.1,29.86,South,181,2.0,5.0,89,0.00,,,0.00,Wunderground v.1.15,2013-07-19 07:58:00,
2013-07-19 02:59:00,76.5,73.0,29.86,South,181,2.0,5.0,89,0.00,,,0.00,Wunderground v.1.15,2013-07-19 07:59:00,
2013-07-19 03:01:00,76.5,73.0,29.86,South,179,2.0,3.0,89,0.00,,,0.00,Wunderground v.1.15,2013-07-19 08:01:00,
2013-07-19 03:02:00,76.5,73.0,29.86,South,179,2.0,3.0,89,0.00,,,0.00,Wunderground v.1.15,2013-07-19 08:02:00,
2013-07-19 03:05:00,76.4,72.9,29.86,South,186,2.0,4.0,89,0.00,,,0.00,Wunderground v.1.15,2013-07-19 08:05:00,
2013-07-19 03:07:00,76.4,72.9,29.86,South,187,3.0,4.0,89,0.00,,,0.00,Wunderground v.1.15,2013-07-19 08:07:00,
2013-07-19 03:10:00,76.4,72.9,29.86,South,186,3.0,3.0,89,0.00,,,0.00,Wunderground v.1.15,2013-07-19 08:10:00,
2013-07-19 03:11:00,76.4,72.9,29.86,South,186,3.0,3.0,89,0.00,,,0.00,Wunderground v.1.15,2013-07-19 08:11:00,
2013-07-19 03:16:00,76.3,72.8,29.86,South,180,3.0,4.0,89,0.00,,,0.00,Wunderground v.1.15,2013-07-19 08:16:00,
2013-07-19 03:17:00,76.3,72.8,29.86,South,184,3.0,4.0,89,0.00,,,0.00,Wunderground v.1.15,2013-07-19 08:17:00,
2013-07-19 03:18:00,76.3,72.8,29.86,South,184,3.0,4.0,89,0.00,,,0.00,Wunderground v.1.15,2013-07-19 08:18:00,
2013-07-19 03:23:00,76.3,72.8,29.86,South,188,3.0,6.0,89,0.00,,,0.00,Wunderground v.1.15,2013-07-19 08:23:00,
2013-07-19 03:25:00,76.3,72.8,29.85,South,188,3.0,6.0,89,0.00,,,0.00,Wunderground v.1.15,2013-07-19 08:25:00,
2013-07-19 03:26:00,76.3,72.8,29.85,South,188,3.0,6.0,89,0.00,,,0.00,Wunderground v.1.15,2013-07-19 08:26:00,
2013-07-19 03:29:00,76.3,72.8,29.85,South,186,3.0,6.0,89,0.00,,,0.00,Wunderground v.1.15,2013-07-19 08:29:00,
2013-07-19 03:31:00,76.2,72.7,29.85,South,186,3.0,4.0,89,0.00,,,0.00,Wunderground v.1.15,2013-07-19 08:31:00,
2013-07-19 03:35:00,76.3,72.8,29.85,South,184,3.0,6.0,89,0.00,,,0.00,Wunderground v.1.15,2013-07-19 08:35:00,
2013-07-19 03:39:00,76.3,72.8,29.85,South,183,3.0,9.0,89,0.00,,,0.00,Wunderground v.1.15,2013-07-19 08:39:00,
2013-07-19 03:40:00,76.3,72.8,29.85,South,185,3.0,4.0,89,0.00,,,0.00,Wunderground v.1.15,2013-07-19 08:40:00,
2013-07-19 03:41:00,76.3,72.8,29.85,South,187,4.0,4.0,89,0.00,,,0.00,Wunderground v.1.15,2013-07-19 08:41:00,
2013-07-19 03:42:00,76.3,72.8,29.85,South,187,4.0,4.0,89,0.00,,,0.00,Wunderground v.1.15,2013-07-19 08:42:00,
2013-07-19 03:43:00,76.3,72.8,29.84,South,170,3.0,6.0,89,0.00,,,0.00,Wunderground v.1.15,2013-07-19 08:43:00,
2013-07-19 03:47:00,76.2,72.7,29.84,SSW,194,4.0,6.0,89,0.00,,,0.00,Wunderground v.1.15,2013-07-19 08:47:00,
2013-07-19 03:49:00,76.2,72.7,29.84,South,188,4.0,6.0,89,0.00,,,0.00,Wunderground v.1.15,2013-07-19 08:49:00,
2013-07-19 03:50:00,76.2,72.7,29.84,South,188,4.0,4.0,89,0.00,,,0.00,Wunderground v.1.15,2013-07-19 08:50:00,
2013-07-19 03:51:00,76.2,72.7,29.84,South,188,4.0,5.0,89,0.00,,,0.00,Wunderground v.1.15,2013-07-19 08:51:00,
2013-07-19 03:57:00,76.2,72.4,29.84,South,184,3.0,7.0,88,0.00,,,0.00,Wunderground v.1.15,2013-07-19 08:57:00,
2013-07-19 03:58:00,76.1,72.3,29.84,South,182,3.0,7.0,88,0.00,,,0.00,Wunderground v.1.15,2013-07-19 08:58:00,
2013-07-19 04:00:00,76.1,72.3,29.84,South,181,3.0,3.0,88,0.00,,,0.00,Wunderground v.1.15,2013-07-19 09:00:00,
2013-07-19 04:03:00,76.0,72.2,29.84,South,182,3.0,6.0,88,0.00,,,0.00,Wunderground v.1.15,2013-07-19 09:03:00,
2013-07-19 04:04:00,76.1,72.3,29.84,South,182,3.0,6.0,88,0.00,,,0.00,Wunderground v.1.15,2013-07-19 09:04:00,
2013-07-19 04:06:00,76.0,72.5,29.84,South,188,3.0,6.0,89,0.00,,,0.00,Wunderground v.1.15,2013-07-19 09:06:00,
2013-07-19 04:09:00,76.0,72.5,29.84,South,190,3.0,6.0,89,0.00,,,0.00,Wunderground v.1.15,2013-07-19 09:09:00,
2013-07-19 04:11:00,75.9,72.4,29.84,SSW,203,4.0,5.0,89,0.00,,,0.00,Wunderground v.1.15,2013-07-19 09:11:00,
2013-07-19 04:14:00,75.9,72.4,29.84,SSW,200,4.0,5.0,89,0.00,,,0.00,Wunderground v.1.15,2013-07-19 09:14:00,
2013-07-19 04:15:00,75.8,72.3,29.84,South,188,4.0,6.0,89,0.00,,,0.00,Wunderground v.1.15,2013-07-19 09:15:00,
2013-07-19 04:17:00,75.8,72.3,29.84,SSE,161,4.0,6.0,89,0.00,,,0.00,Wunderground v.1.15,2013-07-19 09:17:00,
2013-07-19 04:18:00,75.8,72.3,29.84,SSE,165,4.0,6.0,89,0.00,,,0.00,Wunderground v.1.15,2013-07-19 09:18:00,
2013-07-19 04:20:00,75.8,72.3,29.84,South,172,4.0,4.0,89,0.00,,,0.00,Wunderground v.1.15,2013-07-19 09:20:00,
2013-07-19 04:21:00,75.7,72.2,29.84,South,185,4.0,4.0,89,0.00,,,0.00,Wunderground v.1.15,2013-07-19 09:21:00,
2013-07-19 04:22:00,75.7,72.2,29.84,South,185,4.0,4.0,89,0.00,,,0.00,Wunderground v.1.15,2013-07-19 09:22:00,
2013-07-19 04:23:00,75.7,72.2,29.84,South,185,3.0,4.0,89,0.00,,,0.00,Wunderground v.1.15,2013-07-19 09:23:00,
2013-07-19 04:25:00,75.7,72.2,29.84,South,185,3.0,4.0,89,0.00,,,0.00,Wunderground v.1.15,2013-07-19 09:25:00,
2013-07-19 04:27:00,75.6,72.1,29.83,South,190,3.0,4.0,89,0.00,,,0.00,Wunderground v.1.15,2013-07-19 09:27:00,
2013-07-19 04:29:00,75.6,72.1,29.83,South,184,3.0,4.0,89,0.00,,,0.00,Wunderground v.1.15,2013-07-19 09:29:00,
2013-07-19 04:31:00,75.6,72.1,29.83,SSW,193,3.0,3.0,89,0.00,,,0.00,Wunderground v.1.15,2013-07-19 09:31:00,
2013-07-19 04:32:00,75.6,72.1,29.83,SSW,192,3.0,3.0,89,0.00,,,0.00,Wunderground v.1.15,2013-07-19 09:32:00,
2013-07-19 04:33:00,75.6,72.1,29.83,SW,236,3.0,5.0,89,0.00,,,0.00,Wunderground v.1.15,2013-07-19 09:33:00,
2013-07-19 04:35:00,75.5,72.0,29.84,SW,225,3.0,5.0,89,0.00,,,0.00,Wunderground v.1.15,2013-07-19 09:35:00,
2013-07-19 04:36:00,75.5,72.0,29.83,SSW,200,3.0,5.0,89,0.00,,,0.00,Wunderground v.1.15,2013-07-19 09:36:00,
2013-07-19 04:37:00,75.5,72.0,29.83,SSW,202,3.0,5.0,89,0.00,,,0.00,Wunderground v.1.15,2013-07-19 09:37:00,
2013-07-19 04:40:00,75.5,72.0,29.83,SSW,202,4.0,4.0,89,0.00,,,0.00,Wunderground v.1.15,2013-07-19 09:40:00,
2013-07-19 04:41:00,75.5,72.0,29.84,SSW,200,4.0,5.0,89,0.00,,,0.00,Wunderground v.1.15,2013-07-19 09:41:00,
2013-07-19 04:42:00,75.5,72.0,29.83,SSW,199,4.0,5.0,89,0.00,,,0.00,Wunderground v.1.15,2013-07-19 09:42:00,
2013-07-19 04:44:00,75.5,72.0,29.83,SSW,198,4.0,5.0,89,0.00,,,0.00,Wunderground v.1.15,2013-07-19 09:44:00,
2013-07-19 04:46:00,75.4,71.9,29.83,South,182,4.0,5.0,89,0.00,,,0.00,Wunderground v.1.15,2013-07-19 09:46:00,
2013-07-19 04:48:00,75.4,71.9,29.83,South,182,3.0,5.0,89,0.00,,,0.00,Wunderground v.1.15,2013-07-19 09:48:00,
2013-07-19 04:49:00,75.4,71.9,29.83,South,178,3.0,5.0,89,0.00,,,0.00,Wunderground v.1.15,2013-07-19 09:49:00,
2013-07-19 04:53:00,75.4,71.9,29.83,South,179,3.0,3.0,89,0.00,,,0.00,Wunderground v.1.15,2013-07-19 09:53:00,
2013-07-19 04:54:00,75.3,71.8,29.83,SSW,196,3.0,3.0,89,0.00,,,0.00,Wunderground v.1.15,2013-07-19 09:54:00,
2013-07-19 04:55:00,75.3,71.8,29.83,SSW,196,3.0,3.0,89,0.00,,,0.00,Wunderground v.1.15,2013-07-19 09:55:00,
2013-07-19 04:57:00,75.3,71.8,29.83,SSW,205,2.0,8.0,89,0.00,,,0.00,Wunderground v.1.15,2013-07-19 09:57:00,
2013-07-19 04:58:00,75.3,71.8,29.83,SSW,202,3.0,8.0,89,0.00,,,0.00,Wunderground v.1.15,2013-07-19 09:58:00,
2013-07-19 04:59:00,75.3,71.8,29.83,SSW,202,3.0,8.0,89,0.00,,,0.00,Wunderground v.1.15,2013-07-19 09:59:00,
2013-07-19 05:00:00,75.3,71.8,29.83,SSW,202,3.0,3.0,89,0.00,,,0.00,Wunderground v.1.15,2013-07-19 10:00:00,
2013-07-19 05:05:00,75.2,72.1,29.83,SSW,207,3.0,4.0,90,0.00,,,0.00,Wunderground v.1.15,2013-07-19 10:05:00,
2013-07-19 05:06:00,75.2,72.1,29.83,SSW,196,3.0,5.0,90,0.00,,,0.00,Wunderground v.1.15,2013-07-19 10:06:00,
2013-07-19 05:07:00,75.2,72.1,29.83,SSW,196,3.0,5.0,90,0.00,,,0.00,Wunderground v.1.15,2013-07-19 10:07:00,
2013-07-19 05:08:00,75.2,72.1,29.83,SSW,196,3.0,5.0,90,0.00,,,0.00,Wunderground v.1.15,2013-07-19 10:08:00,
2013-07-19 05:09:00,75.2,72.1,29.83,SSW,196,3.0,5.0,90,0.00,,,0.00,Wunderground v.1.15,2013-07-19 10:09:00,
2013-07-19 05:12:00,75.1,72.0,29.83,SSW,192,2.0,4.0,90,0.00,,,0.00,Wunderground v.1.15,2013-07-19 10:12:00,
2013-07-19 05:14:00,75.1,72.0,29.83,SSW,194,2.0,5.0,90,0.00,,,0.00,Wunderground v.1.15,2013-07-19 10:14:00,
2013-07-19 05:15:00,75.1,72.0,29.84,SSW,193,3.0,5.0,90,0.00,,,0.00,Wunderground v.1.15,2013-07-19 10:15:00,
2013-07-19 05:17:00,75.1,72.0,29.83,SSW,192,3.0,5.0,90,0.00,,,0.00,Wunderground v.1.15,2013-07-19 10:17:00,
2013-07-19 05:20:00,75.1,72.0,29.83,South,178,3.0,3.0,90,0.00,,,0.00,Wunderground v.1.15,2013-07-19 10:20:00,
2013-07-19 05:21:00,75.1,72.0,29.84,South,179,3.0,6.0,90,0.00,,,0.00,Wunderground v.1.15,2013-07-19 10:21:00,
2013-07-19 05:22:00,75.1,72.0,29.84,SSW,198,3.0,6.0,90,0.00,,,0.00,Wunderground v.1.15,2013-07-19 10:22:00,
2013-07-19 05:24:00,75.1,72.0,29.84,SSW,198,4.0,6.0,90,0.00,,,0.00,Wunderground v.1.15,2013-07-19 10:24:00,
2013-07-19 05:26:00,75.1,72.0,29.83,SSW,198,4.0,6.0,90,0.00,,,0.00,Wunderground v.1.15,2013-07-19 10:26:00,
2013-07-19 05:27:00,75.1,72.0,29.83,SSW,198,3.0,6.0,90,0.00,,,0.00,Wunderground v.1.15,2013-07-19 10:27:00,
2013-07-19 05:29:00,75.1,72.0,29.83,SSW,197,3.0,6.0,90,0.00,,,0.00,Wunderground v.1.15,2013-07-19 10:29:00,
2013-07-19 05:30:00,75.1,72.0,29.84,SSW,197,3.0,3.0,90,0.00,,,0.00,Wunderground v.1.15,2013-07-19 10:30:00,
2013-07-19 05:31:00,75.0,71.9,29.84,SSW,197,3.0,3.0,90,0.00,,,0.00,Wunderground v.1.15,2013-07-19 10:31:00,
2013-07-19 05:32:00,75.0,71.9,29.84,SSW,197,3.0,7.0,90,0.00,,,0.00,Wunderground v.1.15,2013-07-19 10:32:00,
2013-07-19 05:35:00,75.0,71.9,29.84,South,190,2.0,7.0,90,0.00,,,0.00,Wunderground v.1.15,2013-07-19 10:35:00,
2013-07-19 05:38:00,75.0,71.9,29.83,South,188,2.0,7.0,90,0.00,,,0.00,Wunderground v.1.15,2013-07-19 10:38:00,
2013-07-19 05:39:00,74.9,71.8,29.83,South,187,2.0,7.0,90,0.00,,,0.00,Wunderground v.1.15,2013-07-19 10:39:00,
2013-07-19 05:40:00,74.9,71.8,29.83,South,188,2.0,3.0,90,0.00,,,0.00,Wunderground v.1.15,2013-07-19 10:40:00,
2013-07-19 05:42:00,74.9,71.8,29.83,South,188,2.0,6.0,90,0.00,,,0.00,Wunderground v.1.15,2013-07-19 10:42:00,
2013-07-19 05:44:00,74.9,71.8,29.83,SSW,198,3.0,6.0,90,0.00,,,0.00,Wunderground v.1.15,2013-07-19 10:44:00,
2013-07-19 05:46:00,74.9,71.8,29.83,SSW,198,3.0,6.0,90,0.00,,,0.00,Wunderground v.1.15,2013-07-19 10:46:00,
2013-07-19 05:48:00,74.9,71.8,29.83,South,190,3.0,6.0,90,0.00,,,0.00,Wunderground v.1.15,2013-07-19 10:48:00,
2013-07-19 05:49:00,74.9,71.8,29.83,South,190,2.0,6.0,90,0.00,,,0.00,Wunderground v.1.15,2013-07-19 10:49:00,
2013-07-19 05:50:00,74.9,71.8,29.83,South,190,3.0,3.0,90,0.00,,,0.00,Wunderground v.1.15,2013-07-19 10:50:00,
2013-07-19 05:51:00,74.9,71.8,29.83,South,191,3.0,3.0,90,0.00,,,0.00,Wunderground v.1.15,2013-07-19 10:51:00,
2013-07-19 05:54:00,74.9,71.8,29.83,SSW,205,3.0,3.0,90,0.00,,,0.00,Wunderground v.1.15,2013-07-19 10:54:00,
2013-07-19 05:55:00,75.0,71.9,29.83,SSW,204,3.0,6.0,90,0.00,,,0.00,Wunderground v.1.15,2013-07-19 10:55:00,
2013-07-19 05:56:00,75.0,71.9,29.83,SSW,202,3.0,6.0,90,0.00,,,0.00,Wunderground v.1.15,2013-07-19 10:56:00,
2013-07-19 05:57:00,75.0,71.9,29.83,SSW,202,3.0,6.0,90,0.00,,,0.00,Wunderground v.1.15,2013-07-19 10:57:00,
2013-07-19 05:58:00,74.9,71.8,29.83,SSW,202,3.0,6.0,90,0.00,,,0.00,Wunderground v.1.15,2013-07-19 10:58:00,
2013-07-19 06:00:00,74.9,71.8,29.84,SSW,202,2.0,4.0,90,0.00,,,0.00,Wunderground v.1.15,2013-07-19 11:00:00,
2013-07-19 06:02:00,74.9,71.8,29.83,SSW,201,3.0,5.0,90,0.00,,,0.00,Wunderground v.1.15,2013-07-19 11:02:00,
2013-07-19 06:05:00,75.0,71.9,29.84,SSW,201,2.0,5.0,90,0.00,,,0.00,Wunderground v.1.15,2013-07-19 11:05:00,
2013-07-19 06:06:00,75.0,71.9,29.83,SSW,194,2.0,5.0,90,0.00,,,0.00,Wunderground v.1.15,2013-07-19 11:06:00,
2013-07-19 06:09:00,75.0,71.9,29.84,South,190,2.0,5.0,90,0.00,,,0.00,Wunderground v.1.15,2013-07-19 11:09:00,
2013-07-19 06:10:00,75.0,71.9,29.83,South,181,3.0,4.0,90,0.00,,,0.00,Wunderground v.1.15,2013-07-19 11:10:00,
2013-07-19 06:11:00,75.0,71.9,29.84,South,182,3.0,4.0,90,0.00,,,0.00,Wunderground v.1.15,2013-07-19 11:11:00,
2013-07-19 06:14:00,75.1,72.0,29.83,South,182,2.0,4.0,90,0.00,,,0.00,Wunderground v.1.15,2013-07-19 11:14:00,
2013-07-19 06:15:00,75.0,71.9,29.83,South,182,3.0,4.0,90,0.00,,,0.00,Wunderground v.1.15,2013-07-19 11:15:00,
2013-07-19 06:16:00,75.1,72.0,29.83,South,184,2.0,4.0,90,0.00,,,0.00,Wunderground v.1.15,2013-07-19 11:16:00,
2013-07-19 06:17:00,75.1,72.0,29.83,South,184,2.0,4.0,90,0.00,,,0.00,Wunderground v.1.15,2013-07-19 11:17:00,
2013-07-19 06:22:00,75.2,72.1,29.83,SW,215,3.0,6.0,90,0.00,,,0.00,Wunderground v.1.15,2013-07-19 11:22:00,
2013-07-19 06:23:00,75.2,72.1,29.84,South,181,3.0,6.0,90,0.00,,,0.00,Wunderground v.1.15,2013-07-19 11:23:00,
2013-07-19 06:24:00,75.3,72.2,29.83,SSW,209,4.0,6.0,90,0.00,,,0.00,Wunderground v.1.15,2013-07-19 11:24:00,
2013-07-19 06:27:00,75.4,72.3,29.84,SW,220,4.0,6.0,90,0.00,,,0.00,Wunderground v.1.15,2013-07-19 11:27:00,
2013-07-19 06:28:00,75.4,71.9,29.84,SW,221,4.0,6.0,89,0.00,,,0.00,Wunderground v.1.15,2013-07-19 11:28:00,
2013-07-19 06:33:00,75.6,72.1,29.84,SSW,208,4.0,6.0,89,0.00,,,0.00,Wunderground v.1.15,2013-07-19 11:33:00,
2013-07-19 06:34:00,75.6,72.1,29.84,SW,231,4.0,6.0,89,0.00,,,0.00,Wunderground v.1.15,2013-07-19 11:34:00,
2013-07-19 06:35:00,75.7,72.2,29.84,SSW,213,4.0,6.0,89,0.00,,,0.00,Wunderground v.1.15,2013-07-19 11:35:00,
2013-07-19 06:36:00,75.7,72.2,29.84,SSW,207,4.0,6.0,89,0.00,,,0.00,Wunderground v.1.15,2013-07-19 11:36:00,
2013-07-19 06:40:00,75.9,72.4,29.83,South,188,4.0,4.0,89,0.00,,,0.00,Wunderground v.1.15,2013-07-19 11:40:00,
2013-07-19 06:41:00,75.9,72.4,29.84,South,187,4.0,4.0,89,0.00,,,0.00,Wunderground v.1.15,2013-07-19 11:41:00,
2013-07-19 06:42:00,76.0,72.5,29.84,SSW,196,4.0,6.0,89,0.00,,,0.00,Wunderground v.1.15,2013-07-19 11:42:00,
2013-07-19 06:44:00,76.0,72.5,29.84,SSW,198,4.0,6.0,89,0.00,,,0.00,Wunderground v.1.15,2013-07-19 11:44:00,
2013-07-19 06:45:00,76.1,72.6,29.84,SSW,192,4.0,7.0,89,0.00,,,0.00,Wunderground v.1.15,2013-07-19 11:45:00,
2013-07-19 06:47:00,76.2,72.4,29.84,SSW,199,5.0,7.0,88,0.00,,,0.00,Wunderground v.1.15,2013-07-19 11:47:00,
2013-07-19 06:48:00,76.2,72.4,29.84,SSW,200,5.0,7.0,88,0.00,,,0.00,Wunderground v.1.15,2013-07-19 11:48:00,
2013-07-19 06:50:00,76.3,72.5,29.84,SW,215,4.0,4.0,88,0.00,,,0.00,Wunderground v.1.15,2013-07-19 11:50:00,
2013-07-19 06:53:00,76.5,72.7,29.84,SW,224,4.0,4.0,88,0.00,,,0.00,Wunderground v.1.15,2013-07-19 11:53:00,
2013-07-19 06:56:00,76.6,72.8,29.84,South,190,4.0,5.0,88,0.00,,,0.00,Wunderground v.1.15,2013-07-19 11:56:00,
2013-07-19 06:57:00,76.7,72.9,29.84,SSW,211,4.0,7.0,88,0.00,,,0.00,Wunderground v.1.15,2013-07-19 11:57:00,
2013-07-19 06:58:00,76.7,72.9,29.84,SSW,211,4.0,7.0,88,0.00,,,0.00,Wunderground v.1.15,2013-07-19 11:58:00,
2013-07-19 07:00:00,76.8,73.0,29.84,SSW,205,4.0,6.0,88,0.00,,,0.00,Wunderground v.1.15,2013-07-19 12:00:00,
2013-07-19 07:03:00,77.0,72.8,29.84,SSW,202,4.0,6.0,87,0.00,,,0.00,Wunderground v.1.15,2013-07-19 12:03:00,
2013-07-19 07:05:00,77.1,72.9,29.84,SSW,209,5.0,6.0,87,0.00,,,0.00,Wunderground v.1.15,2013-07-19 12:05:00,
2013-07-19 07:07:00,77.2,73.0,29.84,SSW,192,5.0,7.0,87,0.00,,,0.00,Wunderground v.1.15,2013-07-19 12:07:00,
2013-07-19 07:11:00,77.4,73.2,29.84,SSW,198,4.0,7.0,87,0.00,,,0.00,Wunderground v.1.15,2013-07-19 12:11:00,
2013-07-19 07:12:00,77.5,73.3,29.84,SSW,200,4.0,7.0,87,0.00,,,0.00,Wunderground v.1.15,2013-07-19 12:12:00,
2013-07-19 07:13:00,77.5,73.0,29.84,South,191,4.0,8.0,86,0.00,,,0.00,Wunderground v.1.15,2013-07-19 12:13:00,
2013-07-19 07:15:00,77.6,73.1,29.84,SSW,192,4.0,8.0,86,0.00,,,0.00,Wunderground v.1.15,2013-07-19 12:15:00,
2013-07-19 07:18:00,77.8,73.3,29.84,SW,235,4.0,8.0,86,0.00,,,0.00,Wunderground v.1.15,2013-07-19 12:18:00,
2013-07-19 07:19:00,77.8,73.3,29.84,South,184,4.0,8.0,86,0.00,,,0.00,Wunderground v.1.15,2013-07-19 12:19:00,
2013-07-19 07:20:00,77.9,73.4,29.84,South,182,4.0,4.0,86,0.00,,,0.00,Wunderground v.1.15,2013-07-19 12:20:00,
2013-07-19 07:23:00,78.0,73.1,29.85,SW,234,5.0,9.0,85,0.00,,,0.00,Wunderground v.1.15,2013-07-19 12:23:00,
2013-07-19 07:25:00,78.2,73.3,29.85,WSW,247,5.0,11.0,85,0.00,,,0.00,Wunderground v.1.15,2013-07-19 12:25:00,
2013-07-19 07:26:00,78.2,73.3,29.85,WSW,237,5.0,11.0,85,0.00,,,0.00,Wunderground v.1.15,2013-07-19 12:26:00,
2013-07-19 07:29:00,78.4,73.5,29.85,SSW,195,5.0,11.0,85,0.00,,,0.00,Wunderground v.1.15,2013-07-19 12:29:00,
2013-07-19 07:33:00,78.7,73.8,29.84,South,190,5.0,6.0,85,0.00,,,0.00,Wunderground v.1.15,2013-07-19 12:33:00,
2013-07-19 07:34:00,78.7,73.5,29.84,South,187,5.0,6.0,84,0.00,,,0.00,Wunderground v.1.15,2013-07-19 12:34:00,
2013-07-19 07:35:00,78.8,73.6,29.85,South,188,4.0,6.0,84,0.00,,,0.00,Wunderground v.1.15,2013-07-19 12:35:00,
2013-07-19 07:38:00,79.0,73.7,29.85,WSW,241,5.0,7.0,84,0.00,,,0.00,Wunderground v.1.15,2013-07-19 12:38:00,
2013-07-19 07:40:00,79.1,73.8,29.85,SSW,192,4.0,4.0,84,0.00,,,0.00,Wunderground v.1.15,2013-07-19 12:40:00,
2013-07-19 07:42:00,79.2,73.9,29.85,South,184,5.0,9.0,84,0.00,,,0.00,Wunderground v.1.15,2013-07-19 12:42:00,
2013-07-19 07:43:00,79.3,73.7,29.85,SSW,200,5.0,9.0,83,0.00,,,0.00,Wunderground v.1.15,2013-07-19 12:43:00,
2013-07-19 07:44:00,79.4,74.1,29.85,SSW,198,5.0,9.0,84,0.00,,,0.00,Wunderground v.1.15,2013-07-19 12:44:00,
2013-07-19 07:45:00,79.4,73.8,29.84,South,179,5.0,9.0,83,0.00,,,0.00,Wunderground v.1.15,2013-07-19 12:45:00,
2013-07-19 07:49:00,79.6,74.0,29.84,SSW,211,5.0,9.0,83,0.00,,,0.00,Wunderground v.1.15,2013-07-19 12:49:00,
2013-07-19 07:50:00,79.6,73.6,29.84,SSW,204,5.0,5.0,82,0.00,,,0.00,Wunderground v.1.15,2013-07-19 12:50:00,
2013-07-19 07:52:00,79.6,73.6,29.85,SW,227,5.0,5.0,82,0.00,,,0.00,Wunderground v.1.15,2013-07-19 12:52:00,
2013-07-19 07:54:00,79.6,73.6,29.84,SSW,192,5.0,5.0,82,0.00,,,0.00,Wunderground v.1.15,2013-07-19 12:54:00,
2013-07-19 07:57:00,79.6,74.0,29.84,SSW,209,5.0,7.0,83,0.00,,,0.00,Wunderground v.1.15,2013-07-19 12:57:00,
2013-07-19 08:00:00,79.6,73.6,29.85,South,191,4.0,5.0,82,0.00,,,0.00,Wunderground v.1.15,2013-07-19 13:00:00,
2013-07-19 08:01:00,79.7,73.7,29.84,SW,216,5.0,5.0,82,0.00,,,0.00,Wunderground v.1.15,2013-07-19 13:01:00,
2013-07-19 08:02:00,79.7,73.7,29.85,SSW,213,5.0,5.0,82,0.00,,,0.00,Wunderground v.1.15,2013-07-19 13:02:00,
2013-07-19 08:03:00,79.7,73.7,29.85,SSW,202,5.0,5.0,82,0.00,,,0.00,Wunderground v.1.15,2013-07-19 13:03:00,
2013-07-19 08:06:00,79.9,73.9,29.85,South,178,5.0,7.0,82,0.00,,,0.00,Wunderground v.1.15,2013-07-19 13:06:00,
2013-07-19 08:09:00,80.1,73.7,29.85,SSW,196,5.0,10.0,81,0.00,,,0.00,Wunderground v.1.15,2013-07-19 13:09:00,
2013-07-19 08:12:00,80.3,73.9,29.85,SSW,193,5.0,7.0,81,0.00,,,0.00,Wunderground v.1.15,2013-07-19 13:12:00,
2013-07-19 08:15:00,80.6,74.2,29.85,SSW,207,6.0,7.0,81,0.00,,,0.00,Wunderground v.1.15,2013-07-19 13:15:00,
2013-07-19 08:18:00,80.7,74.0,29.85,SSW,207,6.0,7.0,80,0.00,,,0.00,Wunderground v.1.15,2013-07-19 13:18:00,
2013-07-19 08:19:00,80.8,74.0,29.85,South,182,6.0,7.0,80,0.00,,,0.00,Wunderground v.1.15,2013-07-19 13:19:00,
2013-07-19 08:21:00,80.9,74.1,29.85,South,173,6.0,6.0,80,0.00,,,0.00,Wunderground v.1.15,2013-07-19 13:21:00,
2013-07-19 08:27:00,81.2,74.4,29.85,South,188,5.0,7.0,80,0.00,,,0.00,Wunderground v.1.15,2013-07-19 13:27:00,
2013-07-19 08:28:00,81.2,74.4,29.84,SSW,196,5.0,7.0,80,0.00,,,0.00,Wunderground v.1.15,2013-07-19 13:28:00,
2013-07-19 08:29:00,81.3,74.5,29.85,SW,223,5.0,7.0,80,0.00,,,0.00,Wunderground v.1.15,2013-07-19 13:29:00,
2013-07-19 08:32:00,81.6,74.5,29.85,South,189,5.0,7.0,79,0.00,,,0.00,Wunderground v.1.15,2013-07-19 13:32:00,
2013-07-19 08:34:00,81.7,74.5,29.85,SSW,196,6.0,12.0,79,0.00,,,0.00,Wunderground v.1.15,2013-07-19 13:34:00,
2013-07-19 08:36:00,81.9,74.7,29.85,South,191,5.0,12.0,79,0.00,,,0.00,Wunderground v.1.15,2013-07-19 13:36:00,
2013-07-19 08:37:00,81.9,74.7,29.85,SW,221,5.0,12.0,79,0.00,,,0.00,Wunderground v.1.15,2013-07-19 13:37:00,
2013-07-19 08:41:00,82.2,74.7,29.85,South,188,6.0,11.0,78,0.00,,,0.00,Wunderground v.1.15,2013-07-19 13:41:00,
2013-07-19 08:43:00,82.3,74.4,29.85,SSW,208,6.0,11.0,77,0.00,,,0.00,Wunderground v.1.15,2013-07-19 13:43:00,
2013-07-19 08:44:00,82.4,74.8,29.85,SSW,196,5.0,11.0,78,0.00,,,0.00,Wunderground v.1.15,2013-07-19 13:44:00,
2013-07-19 08:47:00,82.6,75.0,29.84,SSW,196,5.0,11.0,78,0.00,,,0.00,Wunderground v.1.15,2013-07-19 13:47:00,
2013-07-19 08:50:00,82.8,75.2,29.85,South,184,5.0,5.0,78,0.00,,,0.00,Wunderground v.1.15,2013-07-19 13:50:00,
2013-07-19 08:51:00,83.0,75.4,29.84,South,187,4.0,5.0,78,0.00,,,0.00,Wunderground v.1.15,2013-07-19 13:51:00,
2013-07-19 08:53:00,83.1,75.1,29.84,South,184,4.0,5.0,77,0.00,,,0.00,Wunderground v.1.15,2013-07-19 13:53:00,
2013-07-19 08:55:00,83.3,75.3,29.84,SSW,200,4.0,5.0,77,0.00,,,0.00,Wunderground v.1.15,2013-07-19 13:55:00,
2013-07-19 08:57:00,83.4,75.0,29.84,SSW,207,5.0,8.0,76,0.00,,,0.00,Wunderground v.1.15,2013-07-19 13:57:00,
2013-07-19 09:00:00,83.5,75.1,29.85,SSW,207,5.0,5.0,76,0.00,,,0.00,Wunderground v.1.15,2013-07-19 14:00:00,
2013-07-19 09:01:00,83.6,75.2,29.85,South,190,5.0,12.0,76,0.00,,,0.00,Wunderground v.1.15,2013-07-19 14:01:00,
2013-07-19 09:02:00,83.6,75.2,29.85,SSW,194,6.0,12.0,76,0.00,,,0.00,Wunderground v.1.15,2013-07-19 14:02:00,
2013-07-19 09:05:00,83.7,74.5,29.85,SSW,207,7.0,12.0,74,0.00,,,0.00,Wunderground v.1.15,2013-07-19 14:05:00,
2013-07-19 09:07:00,83.8,75.0,29.85,SW,226,6.0,12.0,75,0.00,,,0.00,Wunderground v.1.15,2013-07-19 14:07:00,
2013-07-19 09:10:00,84.0,75.2,29.85,SW,217,6.0,10.0,75,0.00,,,0.00,Wunderground v.1.15,2013-07-19 14:10:00,
2013-07-19 09:11:00,84.1,74.9,29.85,South,184,7.0,10.0,74,0.00,,,0.00,Wunderground v.1.15,2013-07-19 14:11:00,
2013-07-19 09:12:00,84.1,74.9,29.85,South,169,6.0,10.0,74,0.00,,,0.00,Wunderground v.1.15,2013-07-19 14:12:00,
2013-07-19 09:13:00,84.1,74.9,29.85,South,184,5.0,10.0,74,0.00,,,0.00,Wunderground v.1.15,2013-07-19 14:13:00,
2013-07-19 09:15:00,84.4,75.6,29.85,South,188,5.0,10.0,75,0.00,,,0.00,Wunderground v.1.15,2013-07-19 14:15:00,
2013-07-19 09:16:00,84.5,74.9,29.85,South,186,5.0,10.0,73,0.00,,,0.00,Wunderground v.1.15,2013-07-19 14:16:00,
2013-07-19 09:17:00,84.6,75.0,29.85,South,180,5.0,10.0,73,0.00,,,0.00,Wunderground v.1.15,2013-07-19 14:17:00,
2013-07-19 09:19:00,84.7,75.1,29.85,South,181,5.0,10.0,73,0.00,,,0.00,Wunderground v.1.15,2013-07-19 14:19:00,
2013-07-19 09:21:00,84.9,74.9,29.85,SSW,194,5.0,10.0,72,0.00,,,0.00,Wunderground v.1.15,2013-07-19 14:21:00,
2013-07-19 09:22:00,84.9,74.9,29.85,WSW,248,5.0,10.0,72,0.00,,,0.00,Wunderground v.1.15,2013-07-19 14:22:00,
2013-07-19 09:24:00,85.0,75.0,29.85,SW,232,5.0,10.0,72,0.00,,,0.00,Wunderground v.1.15,2013-07-19 14:24:00,
2013-07-19 09:26:00,84.9,74.9,29.85,SSW,195,5.0,10.0,72,0.00,,,0.00,Wunderground v.1.15,2013-07-19 14:26:00,
2013-07-19 09:27:00,84.8,74.3,29.85,South,171,6.0,10.0,71,0.00,,,0.00,Wunderground v.1.15,2013-07-19 14:27:00,
2013-07-19 09:28:00,84.8,74.8,29.85,SSE,163,5.0,10.0,72,0.00,,,0.00,Wunderground v.1.15,2013-07-19 14:28:00,
2013-07-19 09:32:00,84.6,74.2,29.85,WSW,238,6.0,6.0,71,0.00,,,0.00,Wunderground v.1.15,2013-07-19 14:32:00,
2013-07-19 09:33:00,84.6,74.2,29.85,SSW,198,6.0,6.0,71,0.00,,,0.00,Wunderground v.1.15,2013-07-19 14:33:00,
2013-07-19 09:35:00,84.5,74.5,29.85,SSW,198,5.0,6.0,72,0.00,,,0.00,Wunderground v.1.15,2013-07-19 14:35:00,
2013-07-19 09:36:00,84.5,74.5,29.85,West,259,5.0,7.0,72,0.00,,,0.00,Wunderground v.1.15,2013-07-19 14:36:00,
2013-07-19 09:42:00,84.7,74.3,29.85,South,190,6.0,10.0,71,0.00,,,0.00,Wunderground v.1.15,2013-07-19 14:42:00,
2013-07-19 09:43:00,84.8,74.3,29.85,West,267,6.0,10.0,71,0.00,,,0.00,Wunderground v.1.15,2013-07-19 14:43:00,
2013-07-19 09:44:00,84.8,74.3,29.85,SSW,209,6.0,10.0,71,0.00,,,0.00,Wunderground v.1.15,2013-07-19 14:44:00,
2013-07-19 09:47:00,85.2,75.1,29.85,SSW,211,6.0,10.0,72,0.00,,,0.00,Wunderground v.1.15,2013-07-19 14:47:00,
2013-07-19 09:49:00,85.4,74.5,29.85,South,191,6.0,10.0,70,0.00,,,0.00,Wunderground v.1.15,2013-07-19 14:49:00,
2013-07-19 09:51:00,85.7,74.8,29.84,SSW,194,6.0,11.0,70,0.00,,,0.00,Wunderground v.1.15,2013-07-19 14:51:00,
2013-07-19 09:56:00,86.2,75.7,29.84,SW,224,5.0,11.0,71,0.00,,,0.00,Wunderground v.1.15,2013-07-19 14:56:00,
2013-07-19 09:57:00,86.3,75.4,29.84,SW,224,5.0,11.0,70,0.00,,,0.00,Wunderground v.1.15,2013-07-19 14:57:00,
2013-07-19 09:58:00,86.4,75.9,29.84,South,187,4.0,11.0,71,0.00,,,0.00,Wunderground v.1.15,2013-07-19 14:58:00,
2013-07-19 10:00:00,86.6,75.2,29.84,South,189,4.0,4.0,69,0.00,,,0.00,Wunderground v.1.15,2013-07-19 15:00:00,
2013-07-19 10:02:00,86.8,75.4,29.84,SW,226,4.0,4.0,69,0.00,,,0.00,Wunderground v.1.15,2013-07-19 15:02:00,
2013-07-19 10:06:00,86.6,74.8,29.84,SW,215,5.0,9.0,68,0.00,,,0.00,Wunderground v.1.15,2013-07-19 15:06:00,
2013-07-19 10:07:00,86.6,74.8,29.84,SW,220,5.0,9.0,68,0.00,,,0.00,Wunderground v.1.15,2013-07-19 15:07:00,
2013-07-19 10:08:00,86.5,74.7,29.84,South,181,5.0,10.0,68,0.00,,,0.00,Wunderground v.1.15,2013-07-19 15:08:00,
2013-07-19 10:11:00,86.2,74.8,29.84,South,187,5.0,5.0,69,0.00,,,0.00,Wunderground v.1.15,2013-07-19 15:11:00,
2013-07-19 10:13:00,86.2,75.3,29.84,South,185,5.0,5.0,70,0.00,,,0.00,Wunderground v.1.15,2013-07-19 15:13:00,
2013-07-19 10:14:00,86.2,75.3,29.84,South,180,5.0,5.0,70,0.00,,,0.00,Wunderground v.1.15,2013-07-19 15:14:00,
2013-07-19 10:18:00,86.4,75.5,29.84,SW,226,4.0,5.0,70,0.00,,,0.00,Wunderground v.1.15,2013-07-19 15:18:00,
2013-07-19 10:22:00,86.7,75.7,29.84,South,173,3.0,4.0,70,0.00,,,0.00,Wunderground v.1.15,2013-07-19 15:22:00,
2013-07-19 10:23:00,86.8,76.3,29.84,South,170,3.0,4.0,71,0.00,,,0.00,Wunderground v.1.15,2013-07-19 15:23:00,
2013-07-19 10:24:00,86.9,75.9,29.84,South,170,3.0,4.0,70,0.00,,,0.00,Wunderground v.1.15,2013-07-19 15:24:00,
2013-07-19 10:25:00,87.0,76.0,29.84,SSW,209,3.0,4.0,70,0.00,,,0.00,Wunderground v.1.15,2013-07-19 15:25:00,
2013-07-19 10:28:00,87.3,75.9,29.84,South,191,3.0,5.0,69,0.00,,,0.00,Wunderground v.1.15,2013-07-19 15:28:00,
2013-07-19 10:30:00,87.4,75.5,29.84,South,181,3.0,4.0,68,0.00,,,0.00,Wunderground v.1.15,2013-07-19 15:30:00,
2013-07-19 10:32:00,87.5,75.2,29.84,South,186,3.0,5.0,67,0.00,,,0.00,Wunderground v.1.15,2013-07-19 15:32:00,
2013-07-19 10:34:00,87.6,75.3,29.84,South,188,4.0,7.0,67,0.00,,,0.00,Wunderground v.1.15,2013-07-19 15:34:00,
2013-07-19 10:35:00,87.6,75.3,29.84,SSW,198,4.0,7.0,67,0.00,,,0.00,Wunderground v.1.15,2013-07-19 15:35:00,
2013-07-19 10:39:00,87.7,74.9,29.83,South,171,5.0,10.0,66,0.00,,,0.00,Wunderground v.1.15,2013-07-19 15:39:00,
2013-07-19 10:40:00,87.7,75.4,29.83,South,189,5.0,5.0,67,0.00,,,0.00,Wunderground v.1.15,2013-07-19 15:40:00,
2013-07-19 10:45:00,87.8,75.9,29.83,SW,231,5.0,12.0,68,0.00,,,0.00,Wunderground v.1.15,2013-07-19 15:45:00,
2013-07-19 10:46:00,87.9,75.6,29.83,SSE,149,5.0,12.0,67,0.00,,,0.00,Wunderground v.1.15,2013-07-19 15:46:00,
2013-07-19 10:47:00,87.9,75.6,29.83,SSW,209,5.0,12.0,67,0.00,,,0.00,Wunderground v.1.15,2013-07-19 15:47:00,
2013-07-19 10:52:00,88.1,74.8,29.83,SSW,205,6.0,6.0,65,0.00,,,0.00,Wunderground v.1.15,2013-07-19 15:52:00,
2013-07-19 10:53:00,88.2,74.9,29.83,South,188,5.0,6.0,65,0.00,,,0.00,Wunderground v.1.15,2013-07-19 15:53:00,
2013-07-19 10:57:00,88.4,75.1,29.83,SSE,157,6.0,9.0,65,0.00,,,0.00,Wunderground v.1.15,2013-07-19 15:57:00,
2013-07-19 10:58:00,88.4,75.6,29.82,SW,236,5.0,9.0,66,0.00,,,0.00,Wunderground v.1.15,2013-07-19 15:58:00,
2013-07-19 10:59:00,88.5,75.2,29.83,SW,227,6.0,9.0,65,0.00,,,0.00,Wunderground v.1.15,2013-07-19 15:59:00,
2013-07-19 11:00:00,88.5,74.8,29.82,SSW,201,6.0,6.0,64,0.00,,,0.00,Wunderground v.1.15,2013-07-19 16:00:00,
2013-07-19 11:02:00,88.6,74.9,29.82,WSW,246,5.0,6.0,64,0.00,,,0.00,Wunderground v.1.15,2013-07-19 16:02:00,
2013-07-19 11:04:00,88.7,75.9,29.82,South,175,5.0,6.0,66,0.00,,,0.00,Wunderground v.1.15,2013-07-19 16:04:00,
2013-07-19 11:07:00,88.8,75.0,29.83,SSW,196,6.0,8.0,64,0.00,,,0.00,Wunderground v.1.15,2013-07-19 16:07:00,
2013-07-19 11:08:00,88.8,75.5,29.83,South,191,6.0,8.0,65,0.00,,,0.00,Wunderground v.1.15,2013-07-19 16:08:00,
2013-07-19 11:11:00,88.9,74.2,29.82,SSW,198,6.0,7.0,62,0.00,,,0.00,Wunderground v.1.15,2013-07-19 16:11:00,
2013-07-19 11:14:00,89.0,74.8,29.83,South,184,6.0,7.0,63,0.00,,,0.00,Wunderground v.1.15,2013-07-19 16:14:00,
2013-07-19 11:17:00,89.1,74.9,29.82,South,182,5.0,8.0,63,0.00,,,0.00,Wunderground v.1.15,2013-07-19 16:17:00,
2013-07-19 11:18:00,89.1,74.9,29.82,WSW,247,6.0,13.0,63,0.00,,,0.00,Wunderground v.1.15,2013-07-19 16:18:00,
2013-07-19 11:21:00,89.0,74.3,29.82,South,186,6.0,9.0,62,0.00,,,0.00,Wunderground v.1.15,2013-07-19 16:21:00,
2013-07-19 11:22:00,89.0,73.8,29.82,SSW,199,6.0,9.0,61,0.00,,,0.00,Wunderground v.1.15,2013-07-19 16:22:00,
2013-07-19 11:23:00,89.0,73.3,29.82,SSE,167,7.0,9.0,60,0.00,,,0.00,Wunderground v.1.15,2013-07-19 16:23:00,
2013-07-19 11:24:00,89.0,73.8,29.82,South,188,7.0,10.0,61,0.00,,,0.00,Wunderground v.1.15,2013-07-19 16:24:00,
2013-07-19 11:28:00,89.0,74.3,29.81,SSW,194,7.0,10.0,62,0.00,,,0.00,Wunderground v.1.15,2013-07-19 16:28:00,
2013-07-19 11:29:00,89.0,74.3,29.81,South,184,7.0,10.0,62,0.00,,,0.00,Wunderground v.1.15,2013-07-19 16:29:00,
2013-07-19 11:32:00,89.1,74.4,29.81,South,177,7.0,9.0,62,0.00,,,0.00,Wunderground v.1.15,2013-07-19 16:32:00,
2013-07-19 11:35:00,89.2,74.0,29.82,SSW,196,7.0,9.0,61,0.00,,,0.00,Wunderground v.1.15,2013-07-19 16:35:00,
2013-07-19 11:36:00,89.2,74.0,29.82,South,186,7.0,9.0,61,0.00,,,0.00,Wunderground v.1.15,2013-07-19 16:36:00,
2013-07-19 11:37:00,89.2,74.0,29.82,WSW,249,7.0,9.0,61,0.00,,,0.00,Wunderground v.1.15,2013-07-19 16:37:00,
2013-07-19 11:38:00,89.3,74.6,29.82,South,185,7.0,9.0,62,0.00,,,0.00,Wunderground v.1.15,2013-07-19 16:38:00,
2013-07-19 11:41:00,89.3,74.6,29.81,WSW,247,7.0,10.0,62,0.00,,,0.00,Wunderground v.1.15,2013-07-19 16:41:00,
2013-07-19 11:42:00,89.4,74.7,29.81,South,179,7.0,10.0,62,0.00,,,0.00,Wunderground v.1.15,2013-07-19 16:42:00,
2013-07-19 11:46:00,89.4,74.2,29.81,South,190,7.0,10.0,61,0.00,,,0.00,Wunderground v.1.15,2013-07-19 16:46:00,
2013-07-19 11:47:00,89.4,74.2,29.81,SSW,200,8.0,10.0,61,0.00,,,0.00,Wunderground v.1.15,2013-07-19 16:47:00,
2013-07-19 11:48:00,89.4,74.7,29.81,WNW,289,8.0,10.0,62,0.00,,,0.00,Wunderground v.1.15,2013-07-19 16:48:00,
2013-07-19 11:50:00,89.4,74.7,29.80,WSW,243,7.0,9.0,62,0.00,,,0.00,Wunderground v.1.15,2013-07-19 16:50:00,
2013-07-19 11:55:00,89.5,74.8,29.80,SSW,194,7.0,9.0,62,0.00,,,0.00,Wunderground v.1.15,2013-07-19 16:55:00,
2013-07-19 11:56:00,89.6,75.3,29.80,South,191,7.0,9.0,63,0.00,,,0.00,Wunderground v.1.15,2013-07-19 16:56:00,
2013-07-19 11:58:00,89.7,75.9,29.80,WSW,244,6.0,9.0,64,0.00,,,0.00,Wunderground v.1.15,2013-07-19 16:58:00,
2013-07-19 12:01:00,89.8,74.6,29.80,South,184,7.0,8.0,61,0.00,,,0.00,Wunderground v.1.15,2013-07-19 17:01:00,
2013-07-19 12:04:00,89.9,75.1,29.80,SW,216,7.0,10.0,62,0.00,,,0.00,Wunderground v.1.15,2013-07-19 17:04:00,
2013-07-19 12:05:00,90.0,75.2,29.80,SSW,196,7.0,10.0,62,0.00,,,0.00,Wunderground v.1.15,2013-07-19 17:05:00,
2013-07-19 12:07:00,90.1,75.3,29.80,SSW,200,7.0,10.0,62,0.00,,,0.00,Wunderground v.1.15,2013-07-19 17:07:00,
2013-07-19 12:09:00,90.2,74.9,29.80,SSW,199,7.0,15.0,61,0.00,,,0.00,Wunderground v.1.15,2013-07-19 17:09:00,
2013-07-19 12:10:00,90.2,74.9,29.80,West,269,7.0,12.0,61,0.00,,,0.00,Wunderground v.1.15,2013-07-19 17:10:00,
2013-07-19 12:12:00,90.2,74.9,29.80,SW,230,8.0,12.0,61,0.00,,,0.00,Wunderground v.1.15,2013-07-19 17:12:00,
2013-07-19 12:14:00,90.2,75.9,29.80,SW,230,8.0,12.0,63,0.00,,,0.00,Wunderground v.1.15,2013-07-19 17:14:00,
2013-07-19 12:15:00,90.2,74.9,29.80,SSW,205,7.0,12.0,61,0.00,,,0.00,Wunderground v.1.15,2013-07-19 17:15:00,
2013-07-19 12:17:00,90.3,75.0,29.80,South,174,7.0,12.0,61,0.00,,,0.00,Wunderground v.1.15,2013-07-19 17:17:00,
2013-07-19 12:20:00,90.4,75.1,29.80,SSE,158,7.0,8.0,61,0.00,,,0.00,Wunderground v.1.15,2013-07-19 17:20:00,
2013-07-19 12:21:00,90.4,75.1,29.80,SSW,205,7.0,8.0,61,0.00,,,0.00,Wunderground v.1.15,2013-07-19 17:21:00,
2013-07-19 12:22:00,90.4,75.1,29.79,SW,218,7.0,8.0,61,0.00,,,0.00,Wunderground v.1.15,2013-07-19 17:22:00,
2013-07-19 12:24:00,90.4,74.6,29.79,South,190,7.0,9.0,60,0.00,,,0.00,Wunderground v.1.15,2013-07-19 17:24:00,
2013-07-19 12:25:00,90.4,75.6,29.80,SSW,198,7.0,9.0,62,0.00,,,0.00,Wunderground v.1.15,2013-07-19 17:25:00,
2013-07-19 12:28:00,90.5,74.2,29.80,South,188,7.0,13.0,59,0.00,,,0.00,Wunderground v.1.15,2013-07-19 17:28:00,
2013-07-19 12:29:00,90.5,74.2,29.80,South,187,7.0,13.0,59,0.00,,,0.00,Wunderground v.1.15,2013-07-19 17:29:00,
2013-07-19 12:31:00,90.6,74.3,29.79,SSW,200,8.0,9.0,59,0.00,,,0.00,Wunderground v.1.15,2013-07-19 17:31:00,
2013-07-19 12:35:00,90.5,73.7,29.79,SSW,196,9.0,11.0,58,0.00,,,0.00,Wunderground v.1.15,2013-07-19 17:35:00,
2013-07-19 12:36:00,90.5,74.7,29.79,South,184,9.0,12.0,60,0.00,,,0.00,Wunderground v.1.15,2013-07-19 17:36:00,
2013-07-19 12:37:00,90.5,73.7,29.79,SSW,213,9.0,12.0,58,0.00,,,0.00,Wunderground v.1.15,2013-07-19 17:37:00,
2013-07-19 12:39:00,90.6,74.8,29.79,South,183,8.0,12.0,60,0.00,,,0.00,Wunderground v.1.15,2013-07-19 17:39:00,
2013-07-19 12:41:00,90.7,74.9,29.79,SW,214,7.0,13.0,60,0.00,,,0.00,Wunderground v.1.15,2013-07-19 17:41:00,
2013-07-19 12:42:00,90.7,75.4,29.78,South,178,7.0,13.0,61,0.00,,,0.00,Wunderground v.1.15,2013-07-19 17:42:00,
2013-07-19 12:45:00,90.8,75.0,29.79,South,173,7.0,13.0,60,0.00,,,0.00,Wunderground v.1.15,2013-07-19 17:45:00,
2013-07-19 12:46:00,90.9,74.6,29.79,SW,228,7.0,13.0,59,0.00,,,0.00,Wunderground v.1.15,2013-07-19 17:46:00,
2013-07-19 12:49:00,91.0,75.2,29.79,SSW,200,8.0,13.0,60,0.00,,,0.00,Wunderground v.1.15,2013-07-19 17:49:00,
2013-07-19 12:51:00,91.0,74.7,29.78,SSW,194,8.0,8.0,59,0.00,,,0.00,Wunderground v.1.15,2013-07-19 17:51:00,
2013-07-19 12:52:00,91.0,75.2,29.78,South,180,8.0,9.0,60,0.00,,,0.00,Wunderground v.1.15,2013-07-19 17:52:00,
2013-07-19 12:53:00,91.1,75.3,29.78,South,188,8.0,9.0,60,0.00,,,0.00,Wunderground v.1.15,2013-07-19 17:53:00,
2013-07-19 12:55:00,91.1,74.3,29.78,West,263,8.0,12.0,58,0.00,,,0.00,Wunderground v.1.15,2013-07-19 17:55:00,
2013-07-19 12:57:00,91.1,75.8,29.78,South,180,8.0,12.0,61,0.00,,,0.00,Wunderground v.1.15,2013-07-19 17:57:00,
2013-07-19 13:00:00,91.1,75.3,29.78,South,180,8.0,10.0,60,0.00,,,0.00,Wunderground v.1.15,2013-07-19 18:00:00,
2013-07-19 13:01:00,91.2,74.9,29.78,South,186,8.0,11.0,59,0.00,,,0.00,Wunderground v.1.15,2013-07-19 18:01:00,
2013-07-19 13:02:00,91.2,74.9,29.78,SSW,194,9.0,11.0,59,0.00,,,0.00,Wunderground v.1.15,2013-07-19 18:02:00,
2013-07-19 13:04:00,91.2,74.4,29.78,SSW,208,9.0,11.0,58,0.00,,,0.00,Wunderground v.1.15,2013-07-19 18:04:00,
2013-07-19 13:06:00,91.2,74.4,29.78,South,184,9.0,11.0,58,0.00,,,0.00,Wunderground v.1.15,2013-07-19 18:06:00,
2013-07-19 13:09:00,91.3,75.0,29.78,WSW,243,8.0,12.0,59,0.00,,,0.00,Wunderground v.1.15,2013-07-19 18:09:00,
2013-07-19 13:10:00,91.3,75.5,29.78,SSW,192,8.0,9.0,60,0.00,,,0.00,Wunderground v.1.15,2013-07-19 18:10:00,
2013-07-19 13:14:00,91.4,75.6,29.78,SW,229,8.0,16.0,60,0.00,,,0.00,Wunderground v.1.15,2013-07-19 18:14:00,
2013-07-19 13:15:00,91.4,75.1,29.78,South,169,7.0,16.0,59,0.00,,,0.00,Wunderground v.1.15,2013-07-19 18:15:00,
2013-07-19 13:16:00,91.5,75.1,29.78,SW,232,7.0,16.0,59,0.00,,,0.00,Wunderground v.1.15,2013-07-19 18:16:00,
2013-07-19 13:17:00,91.5,76.1,29.78,SSW,213,7.0,16.0,61,0.00,,,0.00,Wunderground v.1.15,2013-07-19 18:17:00,
2013-07-19 13:22:00,91.5,75.1,29.78,WSW,248,8.0,9.0,59,0.00,,,0.00,Wunderground v.1.15,2013-07-19 18:22:00,
2013-07-19 13:23:00,91.5,75.1,29.78,South,179,8.0,9.0,59,0.00,,,0.00,Wunderground v.1.15,2013-07-19 18:23:00,
2013-07-19 13:24:00,91.5,74.6,29.78,SSW,201,9.0,12.0,58,0.00,,,0.00,Wunderground v.1.15,2013-07-19 18:24:00,
2013-07-19 13:27:00,91.3,74.4,29.78,SW,229,10.0,12.0,58,0.00,,,0.00,Wunderground v.1.15,2013-07-19 18:27:00,
2013-07-19 13:28:00,91.3,74.4,29.78,West,281,9.0,12.0,58,0.00,,,0.00,Wunderground v.1.15,2013-07-19 18:28:00,
2013-07-19 13:31:00,91.0,74.7,29.78,South,174,8.0,9.0,59,0.00,,,0.00,Wunderground v.1.15,2013-07-19 18:31:00,
2013-07-19 13:33:00,90.9,74.1,29.78,SW,227,9.0,10.0,58,0.00,,,0.00,Wunderground v.1.15,2013-07-19 18:33:00,
2013-07-19 13:36:00,90.6,74.3,29.78,SW,223,9.0,14.0,59,0.00,,,0.00,Wunderground v.1.15,2013-07-19 18:36:00,
2013-07-19 13:37:00,90.6,74.3,29.78,SSW,202,8.0,14.0,59,0.00,,,0.00,Wunderground v.1.15,2013-07-19 18:37:00,
2013-07-19 13:38:00,90.6,74.3,29.78,SW,227,8.0,14.0,59,0.00,,,0.00,Wunderground v.1.15,2013-07-19 18:38:00,
2013-07-19 13:41:00,90.6,74.3,29.78,WSW,255,8.0,13.0,59,0.00,,,0.00,Wunderground v.1.15,2013-07-19 18:41:00,
2013-07-19 13:43:00,90.6,74.3,29.78,SW,215,8.0,13.0,59,0.00,,,0.00,Wunderground v.1.15,2013-07-19 18:43:00,
2013-07-19 13:44:00,90.6,74.8,29.78,SSW,193,7.0,13.0,60,0.00,,,0.00,Wunderground v.1.15,2013-07-19 18:44:00,
2013-07-19 13:46:00,90.7,75.9,29.78,SW,215,6.0,13.0,62,0.00,,,0.00,Wunderground v.1.15,2013-07-19 18:46:00,
2013-07-19 13:48:00,90.9,75.1,29.78,SSE,162,7.0,15.0,60,0.00,,,0.00,Wunderground v.1.15,2013-07-19 18:48:00,
2013-07-19 13:51:00,91.3,75.0,29.78,SW,219,7.0,8.0,59,0.00,,,0.00,Wunderground v.1.15,2013-07-19 18:51:00,
2013-07-19 13:52:00,91.4,74.5,29.77,SW,215,7.0,8.0,58,0.00,,,0.00,Wunderground v.1.15,2013-07-19 18:52:00,
2013-07-19 13:54:00,91.5,75.1,29.77,SSW,205,8.0,8.0,59,0.00,,,0.00,Wunderground v.1.15,2013-07-19 18:54:00,
2013-07-19 13:55:00,91.5,75.1,29.77,South,181,8.0,8.0,59,0.00,,,0.00,Wunderground v.1.15,2013-07-19 18:55:00,
2013-07-19 13:56:00,91.5,75.1,29.78,SSW,211,9.0,9.0,59,0.00,,,0.00,Wunderground v.1.15,2013-07-19 18:56:00,
2013-07-19 14:00:00,91.2,74.4,29.77,South,184,8.0,8.0,58,0.00,,,0.00,Wunderground v.1.15,2013-07-19 19:00:00,
2013-07-19 14:02:00,91.1,74.3,29.78,SSW,207,7.0,8.0,58,0.00,,,0.00,Wunderground v.1.15,2013-07-19 19:02:00,
2013-07-19 14:03:00,91.1,74.3,29.77,South,180,7.0,13.0,58,0.00,,,0.00,Wunderground v.1.15,2013-07-19 19:03:00,
2013-07-19 14:05:00,91.0,74.2,29.77,South,172,7.0,13.0,58,0.00,,,0.00,Wunderground v.1.15,2013-07-19 19:05:00,
2013-07-19 14:06:00,90.9,74.1,29.77,South,170,7.0,13.0,58,0.00,,,0.00,Wunderground v.1.15,2013-07-19 19:06:00,
2013-07-19 14:10:00,90.8,74.5,29.77,WSW,240,7.0,12.0,59,0.00,,,0.00,Wunderground v.1.15,2013-07-19 19:10:00,
2013-07-19 14:11:00,90.7,74.4,29.77,South,177,8.0,12.0,59,0.00,,,0.00,Wunderground v.1.15,2013-07-19 19:11:00,
2013-07-19 14:13:00,90.7,74.4,29.77,SW,234,8.0,12.0,59,0.00,,,0.00,Wunderground v.1.15,2013-07-19 19:13:00,
2013-07-19 14:15:00,90.6,74.8,29.77,SW,218,7.0,12.0,60,0.00,,,0.00,Wunderground v.1.15,2013-07-19 19:15:00,
2013-07-19 14:17:00,90.7,74.9,29.77,WSW,238,7.0,12.0,60,0.00,,,0.00,Wunderground v.1.15,2013-07-19 19:17:00,
2013-07-19 14:19:00,90.9,75.1,29.77,WSW,257,7.0,12.0,60,0.00,,,0.00,Wunderground v.1.15,2013-07-19 19:19:00,
2013-07-19 14:23:00,91.2,75.4,29.76,SSW,196,6.0,12.0,60,0.00,,,0.00,Wunderground v.1.15,2013-07-19 19:23:00,
2013-07-19 14:24:00,91.3,75.0,29.76,SSW,198,7.0,12.0,59,0.00,,,0.00,Wunderground v.1.15,2013-07-19 19:24:00,
2013-07-19 14:28:00,91.7,74.8,29.76,SSW,198,9.0,13.0,58,0.00,,,0.00,Wunderground v.1.15,2013-07-19 19:28:00,
2013-07-19 14:29:00,91.8,75.4,29.76,SSW,211,9.0,13.0,59,0.00,,,0.00,Wunderground v.1.15,2013-07-19 19:29:00,
2013-07-19 14:30:00,91.9,75.0,29.76,SW,225,9.0,9.0,58,0.00,,,0.00,Wunderground v.1.15,2013-07-19 19:30:00,
2013-07-19 14:33:00,92.1,76.2,29.76,SSW,209,9.0,9.0,60,0.00,,,0.00,Wunderground v.1.15,2013-07-19 19:33:00,
2013-07-19 14:34:00,92.2,74.8,29.76,South,186,8.0,9.0,57,0.00,,,0.00,Wunderground v.1.15,2013-07-19 19:34:00,
2013-07-19 14:35:00,92.3,75.4,29.76,WSW,251,8.0,9.0,58,0.00,,,0.00,Wunderground v.1.15,2013-07-19 19:35:00,
2013-07-19 14:36:00,92.4,75.0,29.76,SSW,196,7.0,9.0,57,0.00,,,0.00,Wunderground v.1.15,2013-07-19 19:36:00,
2013-07-19 14:39:00,92.6,75.1,29.76,SSW,192,7.0,9.0,57,0.00,,,0.00,Wunderground v.1.15,2013-07-19 19:39:00,
2013-07-19 14:40:00,92.6,74.6,29.76,SSW,200,7.0,9.0,56,0.00,,,0.00,Wunderground v.1.15,2013-07-19 19:40:00,
2013-07-19 14:43:00,92.6,74.6,29.75,SSW,208,8.0,9.0,56,0.00,,,0.00,Wunderground v.1.15,2013-07-19 19:43:00,
2013-07-19 14:45:00,92.6,75.7,29.75,SSW,201,8.0,9.0,58,0.00,,,0.00,Wunderground v.1.15,2013-07-19 19:45:00,
2013-07-19 14:47:00,92.6,74.6,29.75,South,171,8.0,9.0,56,0.00,,,0.00,Wunderground v.1.15,2013-07-19 19:47:00,
2013-07-19 14:48:00,92.6,75.1,29.75,SW,223,8.0,9.0,57,0.00,,,0.00,Wunderground v.1.15,2013-07-19 19:48:00,
2013-07-19 14:50:00,92.6,74.1,29.75,South,187,8.0,8.0,55,0.00,,,0.00,Wunderground v.1.15,2013-07-19 19:50:00,
2013-07-19 14:52:00,92.6,74.1,29.75,South,180,8.0,8.0,55,0.00,,,0.00,Wunderground v.1.15,2013-07-19 19:52:00,
2013-07-19 14:57:00,92.3,73.2,29.76,South,186,7.0,10.0,54,0.00,,,0.00,Wunderground v.1.15,2013-07-19 19:57:00,
2013-07-19 14:58:00,92.2,73.7,29.76,SSW,196,7.0,10.0,55,0.00,,,0.00,Wunderground v.1.15,2013-07-19 19:58:00,
2013-07-19 14:59:00,92.1,73.6,29.76,SSW,211,7.0,10.0,55,0.00,,,0.00,Wunderground v.1.15,2013-07-19 19:59:00,
2013-07-19 15:00:00,92.0,73.5,29.76,South,190,7.0,8.0,55,0.00,,,0.00,Wunderground v.1.15,2013-07-19 20:00:00,
2013-07-19 15:02:00,91.9,74.0,29.76,South,179,7.0,8.0,56,0.00,,,0.00,Wunderground v.1.15,2013-07-19 20:02:00,
2013-07-19 15:04:00,91.8,74.4,29.76,SSW,202,6.0,8.0,57,0.00,,,0.00,Wunderground v.1.15,2013-07-19 20:04:00,
2013-07-19 15:05:00,91.7,74.8,29.76,SSW,207,6.0,8.0,58,0.00,,,0.00,Wunderground v.1.15,2013-07-19 20:05:00,
2013-07-19 15:06:00,91.7,74.8,29.76,West,279,6.0,11.0,58,0.00,,,0.00,Wunderground v.1.15,2013-07-19 20:06:00,
2013-07-19 15:08:00,91.6,75.2,29.76,South,187,6.0,11.0,59,0.00,,,0.00,Wunderground v.1.15,2013-07-19 20:08:00,
2013-07-19 15:09:00,91.5,74.6,29.76,South,182,6.0,11.0,58,0.00,,,0.00,Wunderground v.1.15,2013-07-19 20:09:00,
2013-07-19 15:11:00,91.4,74.5,29.76,West,261,6.0,7.0,58,0.00,,,0.00,Wunderground v.1.15,2013-07-19 20:11:00,
2013-07-19 15:12:00,91.4,74.5,29.76,South,184,7.0,10.0,58,0.00,,,0.00,Wunderground v.1.15,2013-07-19 20:12:00,
2013-07-19 15:15:00,91.2,73.8,29.76,SSW,192,8.0,17.0,57,0.00,,,0.00,Wunderground v.1.15,2013-07-19 20:15:00,
2013-07-19 15:17:00,91.1,74.3,29.76,SSW,198,9.0,17.0,58,0.00,,,0.00,Wunderground v.1.15,2013-07-19 20:17:00,
2013-07-19 15:18:00,91.1,74.3,29.76,SW,223,9.0,17.0,58,0.00,,,0.00,Wunderground v.1.15,2013-07-19 20:18:00,
2013-07-19 15:20:00,91.0,74.7,29.76,South,186,8.0,14.0,59,0.00,,,0.00,Wunderground v.1.15,2013-07-19 20:20:00,
2013-07-19 15:22:00,90.9,74.6,29.76,SSW,195,7.0,14.0,59,0.00,,,0.00,Wunderground v.1.15,2013-07-19 20:22:00,
2013-07-19 15:25:00,90.8,74.5,29.76,South,180,6.0,14.0,59,0.00,,,0.00,Wunderground v.1.15,2013-07-19 20:25:00,
2013-07-19 15:26:00,90.7,74.4,29.76,SW,220,6.0,14.0,59,0.00,,,0.00,Wunderground v.1.15,2013-07-19 20:26:00,
2013-07-19 15:27:00,90.7,74.4,29.76,SSW,201,6.0,14.0,59,0.00,,,0.00,Wunderground v.1.15,2013-07-19 20:27:00,
2013-07-19 15:28:00,90.7,74.9,29.76,SSW,198,6.0,14.0,60,0.00,,,0.00,Wunderground v.1.15,2013-07-19 20:28:00,
2013-07-19 15:29:00,90.7,74.9,29.76,SSW,199,6.0,14.0,60,0.00,,,0.00,Wunderground v.1.15,2013-07-19 20:29:00,
2013-07-19 15:32:00,90.7,74.9,29.76,SSW,199,6.0,9.0,60,0.00,,,0.00,Wunderground v.1.15,2013-07-19 20:32:00,
2013-07-19 15:33:00,90.6,74.3,29.75,South,173,6.0,9.0,59,0.00,,,0.00,Wunderground v.1.15,2013-07-19 20:33:00,
2013-07-19 15:34:00,90.6,74.8,29.75,South,181,6.0,9.0,60,0.00,,,0.00,Wunderground v.1.15,2013-07-19 20:34:00,
2013-07-19 15:38:00,90.6,74.8,29.75,South,188,6.0,9.0,60,0.00,,,0.00,Wunderground v.1.15,2013-07-19 20:38:00,
2013-07-19 15:40:00,90.6,74.3,29.75,SSW,207,6.0,6.0,59,0.00,,,0.00,Wunderground v.1.15,2013-07-19 20:40:00,
2013-07-19 15:41:00,90.6,74.8,29.75,South,186,7.0,7.0,60,0.00,,,0.00,Wunderground v.1.15,2013-07-19 20:41:00,
2013-07-19 15:43:00,90.6,74.3,29.75,SSW,204,7.0,8.0,59,0.00,,,0.00,Wunderground v.1.15,2013-07-19 20:43:00,
2013-07-19 15:46:00,90.4,74.1,29.75,SSW,202,7.0,9.0,59,0.00,,,0.00,Wunderground v.1.15,2013-07-19 20:46:00,
2013-07-19 15:47:00,90.4,74.1,29.75,South,187,7.0,9.0,59,0.00,,,0.00,Wunderground v.1.15,2013-07-19 20:47:00,
2013-07-19 15:49:00,90.4,74.6,29.75,SSW,211,7.0,11.0,60,0.00,,,0.00,Wunderground v.1.15,2013-07-19 20:49:00,
2013-07-19 15:50:00,90.5,75.7,29.75,South,185,6.0,6.0,62,0.00,,,0.00,Wunderground v.1.15,2013-07-19 20:50:00,
2013-07-19 15:51:00,90.6,75.3,29.75,South,184,6.0,6.0,61,0.00,,,0.00,Wunderground v.1.15,2013-07-19 20:51:00,
2013-07-19 15:53:00,90.7,75.4,29.75,WSW,254,6.0,6.0,61,0.00,,,0.00,Wunderground v.1.15,2013-07-19 20:53:00,
2013-07-19 15:56:00,91.0,75.2,29.75,South,186,5.0,14.0,60,0.00,,,0.00,Wunderground v.1.15,2013-07-19 20:56:00,
2013-07-19 15:57:00,91.1,75.3,29.75,SSW,209,5.0,14.0,60,0.00,,,0.00,Wunderground v.1.15,2013-07-19 20:57:00,
2013-07-19 15:59:00,91.2,73.8,29.75,SW,215,6.0,14.0,57,0.00,,,0.00,Wunderground v.1.15,2013-07-19 20:59:00,
2013-07-19 16:01:00,91.4,74.5,29.75,SSW,198,6.0,9.0,58,0.00,,,0.00,Wunderground v.1.15,2013-07-19 21:01:00,
2013-07-19 16:04:00,91.6,74.2,29.75,South,182,7.0,10.0,57,0.00,,,0.00,Wunderground v.1.15,2013-07-19 21:04:00,
2013-07-19 16:07:00,91.8,74.9,29.75,SSW,201,7.0,10.0,58,0.00,,,0.00,Wunderground v.1.15,2013-07-19 21:07:00,
2013-07-19 16:08:00,91.9,75.0,29.75,SSW,195,6.0,10.0,58,0.00,,,0.00,Wunderground v.1.15,2013-07-19 21:08:00,
2013-07-19 16:09:00,91.9,75.5,29.75,West,277,6.0,10.0,59,0.00,,,0.00,Wunderground v.1.15,2013-07-19 21:09:00,
2013-07-19 16:10:00,91.9,75.0,29.75,SSW,202,7.0,10.0,58,0.00,,,0.00,Wunderground v.1.15,2013-07-19 21:10:00,
2013-07-19 16:11:00,92.0,74.6,29.75,SW,231,7.0,10.0,57,0.00,,,0.00,Wunderground v.1.15,2013-07-19 21:11:00,
2013-07-19 16:14:00,92.2,74.8,29.75,SSW,200,6.0,10.0,57,0.00,,,0.00,Wunderground v.1.15,2013-07-19 21:14:00,
2013-07-19 16:15:00,92.2,75.3,29.75,West,261,6.0,10.0,58,0.00,,,0.00,Wunderground v.1.15,2013-07-19 21:15:00,
2013-07-19 16:16:00,92.3,74.9,29.75,SSW,199,7.0,10.0,57,0.00,,,0.00,Wunderground v.1.15,2013-07-19 21:16:00,
2013-07-19 16:18:00,92.3,75.4,29.75,SSW,211,7.0,10.0,58,0.00,,,0.00,Wunderground v.1.15,2013-07-19 21:18:00,
2013-07-19 16:22:00,92.3,74.3,29.75,South,187,7.0,13.0,56,0.00,,,0.00,Wunderground v.1.15,2013-07-19 21:22:00,
2013-07-19 16:23:00,92.3,74.3,29.74,SW,221,7.0,13.0,56,0.00,,,0.00,Wunderground v.1.15,2013-07-19 21:23:00,
2013-07-19 16:24:00,92.2,74.8,29.75,SSW,194,7.0,13.0,57,0.00,,,0.00,Wunderground v.1.15,2013-07-19 21:24:00,
2013-07-19 16:25:00,92.2,74.8,29.74,South,188,7.0,13.0,57,0.00,,,0.00,Wunderground v.1.15,2013-07-19 21:25:00,
2013-07-19 16:29:00,91.7,74.3,29.74,SSW,213,8.0,13.0,57,0.00,,,0.00,Wunderground v.1.15,2013-07-19 21:29:00,
2013-07-19 16:30:00,91.6,74.2,29.74,South,182,8.0,8.0,57,0.00,,,0.00,Wunderground v.1.15,2013-07-19 21:30:00,
2013-07-19 16:31:00,91.5,74.1,29.74,SSW,202,8.0,8.0,57,0.00,,,0.00,Wunderground v.1.15,2013-07-19 21:31:00,
2013-07-19 16:35:00,91.3,74.4,29.74,WSW,252,7.0,8.0,58,0.00,,,0.00,Wunderground v.1.15,2013-07-19 21:35:00,
2013-07-19 16:36:00,91.4,75.1,29.74,South,186,7.0,8.0,59,0.00,,,0.00,Wunderground v.1.15,2013-07-19 21:36:00,
2013-07-19 16:37:00,91.4,75.1,29.74,South,186,6.0,8.0,59,0.00,,,0.00,Wunderground v.1.15,2013-07-19 21:37:00,
2013-07-19 16:41:00,91.6,75.7,29.74,WSW,243,4.0,6.0,60,0.00,,,0.00,Wunderground v.1.15,2013-07-19 21:41:00,
2013-07-19 16:44:00,91.8,75.4,29.74,South,184,4.0,6.0,59,0.00,,,0.00,Wunderground v.1.15,2013-07-19 21:44:00,
2013-07-19 16:46:00,91.9,75.5,29.74,South,182,4.0,7.0,59,0.00,,,0.00,Wunderground v.1.15,2013-07-19 21:46:00,
2013-07-19 16:48:00,92.0,75.6,29.74,South,178,5.0,7.0,59,0.00,,,0.00,Wunderground v.1.15,2013-07-19 21:48:00,
2013-07-19 16:51:00,92.0,76.6,29.74,SW,223,5.0,5.0,61,0.00,,,0.00,Wunderground v.1.15,2013-07-19 21:51:00,
2013-07-19 16:52:00,92.1,76.7,29.74,SSW,196,4.0,5.0,61,0.00,,,0.00,Wunderground v.1.15,2013-07-19 21:52:00,
2013-07-19 16:56:00,92.1,75.7,29.73,South,181,4.0,5.0,59,0.00,,,0.00,Wunderground v.1.15,2013-07-19 21:56:00,
2013-07-19 16:57:00,92.2,75.8,29.73,South,180,4.0,5.0,59,0.00,,,0.00,Wunderground v.1.15,2013-07-19 21:57:00,
2013-07-19 16:59:00,92.2,75.3,29.73,South,189,4.0,9.0,58,0.00,,,0.00,Wunderground v.1.15,2013-07-19 21:59:00,
2013-07-19 17:02:00,92.3,74.9,29.73,South,189,4.0,10.0,57,0.00,,,0.00,Wunderground v.1.15,2013-07-19 22:02:00,
2013-07-19 17:03:00,92.3,74.9,29.73,SSW,212,4.0,10.0,57,0.00,,,0.00,Wunderground v.1.15,2013-07-19 22:03:00,
2013-07-19 17:04:00,92.3,74.9,29.73,SSW,196,5.0,10.0,57,0.00,,,0.00,Wunderground v.1.15,2013-07-19 22:04:00,
2013-07-19 17:07:00,92.4,75.5,29.73,South,180,4.0,10.0,58,0.00,,,0.00,Wunderground v.1.15,2013-07-19 22:07:00,
2013-07-19 17:08:00,92.4,75.0,29.73,SSW,202,5.0,10.0,57,0.00,,,0.00,Wunderground v.1.15,2013-07-19 22:08:00,
2013-07-19 17:13:00,92.4,75.0,29.73,SSW,201,5.0,9.0,57,0.00,,,0.00,Wunderground v.1.15,2013-07-19 22:13:00,
2013-07-19 17:14:00,92.4,75.0,29.73,West,271,5.0,11.0,57,0.00,,,0.00,Wunderground v.1.15,2013-07-19 22:14:00,
2013-07-19 17:15:00,92.4,75.0,29.73,SSW,199,5.0,11.0,57,0.00,,,0.00,Wunderground v.1.15,2013-07-19 22:15:00,
2013-07-19 17:16:00,92.4,75.0,29.73,West,261,5.0,11.0,57,0.00,,,0.00,Wunderground v.1.15,2013-07-19 22:16:00,
2013-07-19 17:18:00,92.4,75.0,29.74,SSW,195,5.0,11.0,57,0.00,,,0.00,Wunderground v.1.15,2013-07-19 22:18:00,
2013-07-19 17:21:00,92.4,76.0,29.73,South,169,5.0,6.0,59,0.00,,,0.00,Wunderground v.1.15,2013-07-19 22:21:00,
2013-07-19 17:22:00,92.4,76.0,29.73,South,178,5.0,6.0,59,0.00,,,0.00,Wunderground v.1.15,2013-07-19 22:22:00,
2013-07-19 17:24:00,92.3,74.9,29.74,South,183,4.0,6.0,57,0.00,,,0.00,Wunderground v.1.15,2013-07-19 22:24:00,
2013-07-19 17:25:00,92.3,74.9,29.74,SSW,200,4.0,6.0,57,0.00,,,0.00,Wunderground v.1.15,2013-07-19 22:25:00,
2013-07-19 17:27:00,92.2,74.8,29.73,SSW,209,4.0,6.0,57,0.00,,,0.00,Wunderground v.1.15,2013-07-19 22:27:00,
2013-07-19 17:28:00,92.2,74.2,29.74,South,182,4.0,11.0,56,0.00,,,0.00,Wunderground v.1.15,2013-07-19 22:28:00,
2013-07-19 17:32:00,92.1,74.1,29.73,South,189,5.0,5.0,56,0.00,,,0.00,Wunderground v.1.15,2013-07-19 22:32:00,
2013-07-19 17:33:00,92.1,74.7,29.73,SW,223,6.0,6.0,57,0.00,,,0.00,Wunderground v.1.15,2013-07-19 22:33:00,
2013-07-19 17:34:00,92.1,74.1,29.73,SSW,204,6.0,9.0,56,0.00,,,0.00,Wunderground v.1.15,2013-07-19 22:34:00,
2013-07-19 17:36:00,91.9,74.5,29.73,South,188,6.0,9.0,57,0.00,,,0.00,Wunderground v.1.15,2013-07-19 22:36:00,
2013-07-19 17:37:00,92.0,74.6,29.73,South,182,6.0,9.0,57,0.00,,,0.00,Wunderground v.1.15,2013-07-19 22:37:00,
2013-07-19 17:38:00,91.9,74.5,29.73,South,174,7.0,9.0,57,0.00,,,0.00,Wunderground v.1.15,2013-07-19 22:38:00,
2013-07-19 17:40:00,91.9,74.0,29.73,SSW,208,6.0,6.0,56,0.00,,,0.00,Wunderground v.1.15,2013-07-19 22:40:00,
2013-07-19 17:41:00,91.9,74.5,29.73,SSW,199,6.0,6.0,57,0.00,,,0.00,Wunderground v.1.15,2013-07-19 22:41:00,
2013-07-19 17:43:00,91.8,74.4,29.73,SSW,193,5.0,6.0,57,0.00,,,0.00,Wunderground v.1.15,2013-07-19 22:43:00,
2013-07-19 17:46:00,91.7,73.8,29.73,SSW,208,5.0,6.0,56,0.00,,,0.00,Wunderground v.1.15,2013-07-19 22:46:00,
2013-07-19 17:47:00,91.6,73.7,29.73,SW,224,5.0,6.0,56,0.00,,,0.00,Wunderground v.1.15,2013-07-19 22:47:00,
2013-07-19 17:48:00,91.6,73.7,29.73,SSW,208,5.0,6.0,56,0.00,,,0.00,Wunderground v.1.15,2013-07-19 22:48:00,
2013-07-19 17:49:00,91.6,74.2,29.73,SSE,157,5.0,7.0,57,0.00,,,0.00,Wunderground v.1.15,2013-07-19 22:49:00,
2013-07-19 17:54:00,91.4,74.0,29.72,SSW,192,5.0,6.0,57,0.00,,,0.00,Wunderground v.1.15,2013-07-19 22:54:00,
2013-07-19 17:56:00,91.4,74.5,29.72,South,190,5.0,7.0,58,0.00,,,0.00,Wunderground v.1.15,2013-07-19 22:56:00,
2013-07-19 17:58:00,91.3,73.9,29.72,West,260,5.0,7.0,57,0.00,,,0.00,Wunderground v.1.15,2013-07-19 22:58:00,
2013-07-19 17:59:00,91.3,73.4,29.72,SW,222,5.0,7.0,56,0.00,,,0.00,Wunderground v.1.15,2013-07-19 22:59:00,
2013-07-19 18:00:00,91.3,73.9,29.72,SSW,201,5.0,5.0,57,0.00,,,0.00,Wunderground v.1.15,2013-07-19 23:00:00,
2013-07-19 18:03:00,91.2,73.8,29.72,SSW,198,5.0,6.0,57,0.00,,,0.00,Wunderground v.1.15,2013-07-19 23:03:00,
2013-07-19 18:04:00,91.2,73.8,29.72,SSW,211,5.0,6.0,57,0.00,,,0.00,Wunderground v.1.15,2013-07-19 23:04:00,
2013-07-19 18:07:00,91.0,73.7,29.72,SW,227,5.0,6.0,57,0.00,,,0.00,Wunderground v.1.15,2013-07-19 23:07:00,
2013-07-19 18:08:00,90.9,73.6,29.72,SW,233,5.0,6.0,57,0.00,,,0.00,Wunderground v.1.15,2013-07-19 23:08:00,
2013-07-19 18:09:00,90.9,73.6,29.72,SSE,165,5.0,6.0,57,0.00,,,0.00,Wunderground v.1.15,2013-07-19 23:09:00,
2013-07-19 18:10:00,90.8,73.5,29.72,South,187,5.0,11.0,57,0.00,,,0.00,Wunderground v.1.15,2013-07-19 23:10:00,
2013-07-19 18:13:00,90.7,73.9,29.72,South,183,5.0,11.0,58,0.00,,,0.00,Wunderground v.1.15,2013-07-19 23:13:00,
2013-07-19 18:14:00,90.7,73.9,29.72,South,180,5.0,11.0,58,0.00,,,0.00,Wunderground v.1.15,2013-07-19 23:14:00,
2013-07-19 18:17:00,90.8,74.0,29.72,SSW,199,5.0,11.0,58,0.00,,,0.00,Wunderground v.1.15,2013-07-19 23:17:00,
2013-07-19 18:18:00,90.8,74.0,29.72,SSW,192,5.0,11.0,58,0.00,,,0.00,Wunderground v.1.15,2013-07-19 23:18:00,
2013-07-19 18:19:00,90.9,74.6,29.72,South,182,5.0,11.0,59,0.00,,,0.00,Wunderground v.1.15,2013-07-19 23:19:00,
2013-07-19 18:23:00,90.9,74.1,29.72,South,185,5.0,10.0,58,0.00,,,0.00,Wunderground v.1.15,2013-07-19 23:23:00,
2013-07-19 18:25:00,90.9,73.6,29.72,SSW,201,6.0,10.0,57,0.00,,,0.00,Wunderground v.1.15,2013-07-19 23:25:00,
2013-07-19 18:27:00,90.8,73.5,29.72,South,184,6.0,11.0,57,0.00,,,0.00,Wunderground v.1.15,2013-07-19 23:27:00,
2013-07-19 18:28:00,90.7,73.4,29.72,SSW,211,5.0,11.0,57,0.00,,,0.00,Wunderground v.1.15,2013-07-19 23:28:00,
2013-07-19 18:32:00,90.5,73.7,29.72,SSW,210,6.0,6.0,58,0.00,,,0.00,Wunderground v.1.15,2013-07-19 23:32:00,
2013-07-19 18:33:00,90.5,74.2,29.72,SSW,198,5.0,6.0,59,0.00,,,0.00,Wunderground v.1.15,2013-07-19 23:33:00,
2013-07-19 18:34:00,90.5,73.7,29.72,South,175,5.0,6.0,58,0.00,,,0.00,Wunderground v.1.15,2013-07-19 23:34:00,
2013-07-19 18:38:00,90.5,73.7,29.72,South,181,4.0,7.0,58,0.00,,,0.00,Wunderground v.1.15,2013-07-19 23:38:00,
2013-07-19 18:39:00,90.5,73.7,29.72,South,173,4.0,7.0,58,0.00,,,0.00,Wunderground v.1.15,2013-07-19 23:39:00,
2013-07-19 18:40:00,90.5,73.7,29.72,South,181,4.0,4.0,58,0.00,,,0.00,Wunderground v.1.15,2013-07-19 23:40:00,
2013-07-19 18:41:00,90.5,74.2,29.72,SSW,197,4.0,4.0,59,0.00,,,0.00,Wunderground v.1.15,2013-07-19 23:41:00,
2013-07-19 18:44:00,90.6,74.8,29.72,WSW,238,4.0,4.0,60,0.00,,,0.00,Wunderground v.1.15,2013-07-19 23:44:00,
2013-07-19 18:45:00,90.6,74.3,29.71,SSW,205,4.0,4.0,59,0.00,,,0.00,Wunderground v.1.15,2013-07-19 23:45:00,
2013-07-19 18:49:00,90.5,74.2,29.71,South,189,4.0,6.0,59,0.00,,,0.00,Wunderground v.1.15,2013-07-19 23:49:00,
2013-07-19 18:50:00,90.5,74.2,29.71,South,184,4.0,4.0,59,0.00,,,0.00,Wunderground v.1.15,2013-07-19 23:50:00,
2013-07-19 18:51:00,90.5,74.7,29.71,South,191,4.0,4.0,60,0.00,,,0.00,Wunderground v.1.15,2013-07-19 23:51:00,
2013-07-19 18:54:00,90.4,74.1,29.71,SSW,213,4.0,5.0,59,0.00,,,0.00,Wunderground v.1.15,2013-07-19 23:54:00,
2013-07-19 18:56:00,90.1,73.8,29.71,SW,221,3.0,5.0,59,0.00,,,0.00,Wunderground v.1.15,2013-07-19 23:56:00,
2013-07-19 18:57:00,90.1,73.8,29.71,SW,221,3.0,5.0,59,0.00,,,0.00,Wunderground v.1.15,2013-07-19 23:57:00,
2013-07-19 19:01:00,89.6,73.9,29.71,SW,232,3.0,4.0,60,0.00,,,0.00,Wunderground v.1.15,2013-07-20 00:01:00,
2013-07-19 19:02:00,89.5,73.8,29.71,SSW,210,3.0,5.0,60,0.00,,,0.00,Wunderground v.1.15,2013-07-20 00:02:00,
2013-07-19 19:04:00,89.4,73.7,29.71,SW,214,3.0,5.0,60,0.00,,,0.00,Wunderground v.1.15,2013-07-20 00:04:00,
2013-07-19 19:05:00,89.3,73.6,29.71,SW,216,3.0,5.0,60,0.00,,,0.00,Wunderground v.1.15,2013-07-20 00:05:00,
2013-07-19 19:07:00,89.1,73.4,29.71,SSW,200,3.0,5.0,60,0.00,,,0.00,Wunderground v.1.15,2013-07-20 00:07:00,
2013-07-19 19:09:00,88.9,73.7,29.71,SSW,200,3.0,5.0,61,0.00,,,0.00,Wunderground v.1.15,2013-07-20 00:09:00,
2013-07-19 19:11:00,88.6,73.4,29.72,SSW,202,3.0,4.0,61,0.00,,,0.00,Wunderground v.1.15,2013-07-20 00:11:00,
2013-07-19 19:12:00,88.6,73.4,29.72,SSW,205,3.0,5.0,61,0.00,,,0.00,Wunderground v.1.15,2013-07-20 00:12:00,
2013-07-19 19:13:00,88.5,73.3,29.71,SSW,205,2.0,5.0,61,0.00,,,0.00,Wunderground v.1.15,2013-07-20 00:13:00,
2013-07-19 19:17:00,88.2,73.5,29.72,SSW,205,2.0,5.0,62,0.00,,,0.00,Wunderground v.1.15,2013-07-20 00:17:00,
2013-07-19 19:19:00,88.0,73.3,29.72,SSW,205,2.0,5.0,62,0.00,,,0.00,Wunderground v.1.15,2013-07-20 00:19:00,
2013-07-19 19:20:00,87.9,73.3,29.72,SSW,205,2.0,2.0,62,0.00,,,0.00,Wunderground v.1.15,2013-07-20 00:20:00,
2013-07-19 19:22:00,87.8,73.6,29.72,SSW,205,2.0,2.0,63,0.00,,,0.00,Wunderground v.1.15,2013-07-20 00:22:00,
2013-07-19 19:24:00,87.6,73.4,29.72,SSW,205,2.0,3.0,63,0.00,,,0.00,Wunderground v.1.15,2013-07-20 00:24:00,
2013-07-19 19:25:00,87.5,73.8,29.72,SSW,205,2.0,3.0,64,0.00,,,0.00,Wunderground v.1.15,2013-07-20 00:25:00,
2013-07-19 19:27:00,87.4,73.7,29.71,SSW,205,2.0,5.0,64,0.00,,,0.00,Wunderground v.1.15,2013-07-20 00:27:00,
2013-07-19 19:30:00,87.3,74.1,29.72,SSW,205,2.0,2.0,65,0.00,,,0.00,Wunderground v.1.15,2013-07-20 00:30:00,
2013-07-19 19:31:00,87.2,74.0,29.72,SSW,206,2.0,2.0,65,0.00,,,0.00,Wunderground v.1.15,2013-07-20 00:31:00,
2013-07-19 19:35:00,86.9,73.7,29.72,SW,226,2.0,3.0,65,0.00,,,0.00,Wunderground v.1.15,2013-07-20 00:35:00,
2013-07-19 19:36:00,86.8,74.1,29.71,SW,226,2.0,3.0,66,0.00,,,0.00,Wunderground v.1.15,2013-07-20 00:36:00,
2013-07-19 19:39:00,86.7,74.0,29.71,SW,220,2.0,3.0,66,0.00,,,0.00,Wunderground v.1.15,2013-07-20 00:39:00,
2013-07-19 19:40:00,86.6,73.9,29.72,SW,221,2.0,2.0,66,0.00,,,0.00,Wunderground v.1.15,2013-07-20 00:40:00,
2013-07-19 19:41:00,86.5,74.2,29.72,SW,225,2.0,2.0,67,0.00,,,0.00,Wunderground v.1.15,2013-07-20 00:41:00,
2013-07-19 19:43:00,86.5,74.7,29.72,SW,225,2.0,2.0,68,0.00,,,0.00,Wunderground v.1.15,2013-07-20 00:43:00,
2013-07-19 19:45:00,86.4,75.0,29.73,SW,227,2.0,2.0,69,0.00,,,0.00,Wunderground v.1.15,2013-07-20 00:45:00,
2013-07-19 19:47:00,86.1,76.0,29.74,South,190,2.0,4.0,72,0.00,,,0.00,Wunderground v.1.15,2013-07-20 00:47:00,
2013-07-19 19:51:00,84.8,75.6,29.73,North,350,2.0,4.0,74,0.00,,,0.01,Wunderground v.1.15,2013-07-20 00:51:00,
2013-07-19 19:52:00,84.5,75.3,29.73,NW,319,2.0,4.0,74,0.00,,,0.01,Wunderground v.1.15,2013-07-20 00:52:00,
2013-07-19 19:53:00,84.1,75.3,29.73,SW,225,2.0,4.0,75,0.00,,,0.01,Wunderground v.1.15,2013-07-20 00:53:00,
2013-07-19 19:55:00,83.4,75.4,29.73,WSW,244,3.0,4.0,77,0.00,,,0.01,Wunderground v.1.15,2013-07-20 00:55:00,
2013-07-19 19:57:00,82.6,75.0,29.73,WSW,246,2.0,4.0,78,0.00,,,0.01,Wunderground v.1.15,2013-07-20 00:57:00,
2013-07-19 19:59:00,82.0,74.8,29.74,WSW,249,2.0,4.0,79,0.00,,,0.01,Wunderground v.1.15,2013-07-20 00:59:00,
2013-07-19 20:01:00,81.2,74.8,29.74,WSW,250,1.0,2.0,81,0.00,,,0.01,Wunderground v.1.15,2013-07-20 01:01:00,
2013-07-19 20:03:00,80.8,74.4,29.74,WSW,253,1.0,2.0,81,0.00,,,0.01,Wunderground v.1.15,2013-07-20 01:03:00,
2013-07-19 20:04:00,80.5,74.5,29.74,WSW,254,1.0,2.0,82,0.00,,,0.01,Wunderground v.1.15,2013-07-20 01:04:00,
2013-07-19 20:05:00,80.3,74.3,29.74,WSW,253,1.0,2.0,82,0.00,,,0.01,Wunderground v.1.15,2013-07-20 01:05:00,
2013-07-19 20:06:00,80.0,74.4,29.73,West,259,1.0,2.0,83,0.00,,,0.01,Wunderground v.1.15,2013-07-20 01:06:00,
2013-07-19 20:11:00,79.4,73.8,29.73,WSW,253,1.0,1.0,83,0.00,,,0.01,Wunderground v.1.15,2013-07-20 01:11:00,
2013-07-19 20:13:00,79.1,73.8,29.73,WNW,298,1.0,2.0,84,0.00,,,0.01,Wunderground v.1.15,2013-07-20 01:13:00,
2013-07-19 20:14:00,78.9,73.7,29.74,WNW,298,1.0,2.0,84,0.00,,,0.01,Wunderground v.1.15,2013-07-20 01:14:00,
2013-07-19 20:15:00,78.8,73.9,29.74,WNW,299,1.0,2.0,85,0.00,,,0.01,Wunderground v.1.15,2013-07-20 01:15:00,
2013-07-19 20:16:00,78.6,73.7,29.74,NNW,330,1.0,4.0,85,0.00,,,0.01,Wunderground v.1.15,2013-07-20 01:16:00,
2013-07-19 20:17:00,78.6,73.7,29.74,NNW,332,1.0,4.0,85,0.00,,,0.01,Wunderground v.1.15,2013-07-20 01:17:00,
2013-07-19 20:20:00,78.3,73.4,29.74,WNW,295,1.0,7.0,85,0.00,,,0.01,Wunderground v.1.15,2013-07-20 01:20:00,
2013-07-19 20:21:00,78.1,73.2,29.73,WNW,303,1.0,7.0,85,0.00,,,0.01,Wunderground v.1.15,2013-07-20 01:21:00,
2013-07-19 20:22:00,78.0,73.1,29.74,WNW,303,1.0,7.0,85,0.00,,,0.01,Wunderground v.1.15,2013-07-20 01:22:00,
2013-07-19 20:24:00,77.9,73.0,29.73,WSW,252,1.0,7.0,85,0.00,,,0.01,Wunderground v.1.15,2013-07-20 01:24:00,
2013-07-19 20:26:00,77.6,72.4,29.74,WSW,255,1.0,7.0,84,0.00,,,0.01,Wunderground v.1.15,2013-07-20 01:26:00,
2013-07-19 20:28:00,77.6,72.4,29.74,WSW,255,1.0,7.0,84,0.00,,,0.01,Wunderground v.1.15,2013-07-20 01:28:00,
2013-07-19 20:30:00,77.4,72.2,29.74,WSW,255,1.0,1.0,84,0.00,,,0.01,Wunderground v.1.15,2013-07-20 01:30:00,
2013-07-19 20:31:00,77.3,72.1,29.74,WSW,255,1.0,1.0,84,0.00,,,0.01,Wunderground v.1.15,2013-07-20 01:31:00,
2013-07-19 20:32:00,77.3,72.1,29.74,WSW,255,1.0,1.0,84,0.00,,,0.01,Wunderground v.1.15,2013-07-20 01:32:00,
2013-07-19 20:35:00,77.2,72.0,29.73,WSW,255,0.0,1.0,84,0.00,,,0.01,Wunderground v.1.15,2013-07-20 01:35:00,
2013-07-19 20:36:00,77.1,72.2,29.74,WSW,255,0.0,1.0,85,0.00,,,0.01,Wunderground v.1.15,2013-07-20 01:36:00,
2013-07-19 20:39:00,77.0,72.1,29.74,WSW,255,0.0,1.0,85,0.00,,,0.01,Wunderground v.1.15,2013-07-20 01:39:00,
2013-07-19 20:41:00,76.9,72.0,29.74,WSW,255,0.0,0.0,85,0.00,,,0.01,Wunderground v.1.15,2013-07-20 01:41:00,
2013-07-19 20:44:00,76.9,72.4,29.75,WSW,255,0.0,0.0,86,0.00,,,0.01,Wunderground v.1.15,2013-07-20 01:44:00,
2013-07-19 20:45:00,76.8,72.3,29.74,WSW,255,0.0,0.0,86,0.00,,,0.01,Wunderground v.1.15,2013-07-20 01:45:00,
2013-07-19 20:47:00,76.8,72.3,29.75,WSW,255,0.0,0.0,86,0.00,,,0.01,Wunderground v.1.15,2013-07-20 01:47:00,
2013-07-19 20:48:00,76.8,72.3,29.75,WSW,255,0.0,0.0,86,0.00,,,0.01,Wunderground v.1.15,2013-07-20 01:48:00,
2013-07-19 20:51:00,76.7,72.5,29.76,SSW,196,1.0,5.0,87,0.00,,,0.01,Wunderground v.1.15,2013-07-20 01:51:00,
2013-07-19 20:52:00,76.7,72.5,29.78,South,186,1.0,7.0,87,0.00,,,0.01,Wunderground v.1.15,2013-07-20 01:52:00,
2013-07-19 20:53:00,76.7,72.5,29.78,South,173,2.0,11.0,87,0.00,,,0.01,Wunderground v.1.15,2013-07-20 01:53:00,
2013-07-19 20:55:00,76.5,70.9,29.79,SW,215,4.0,18.0,83,0.00,,,0.01,Wunderground v.1.15,2013-07-20 01:55:00,
2013-07-19 20:57:00,76.3,70.4,29.80,South,190,7.0,18.0,82,0.00,,,0.01,Wunderground v.1.15,2013-07-20 01:57:00,
2013-07-19 20:58:00,76.1,70.2,29.81,SSW,193,8.0,18.0,82,0.00,,,0.02,Wunderground v.1.15,2013-07-20 01:58:00,
2013-07-19 20:59:00,75.8,70.3,29.80,SW,221,9.0,18.0,83,1.61,,,0.03,Wunderground v.1.15,2013-07-20 01:59:00,
2013-07-19 21:00:00,75.5,70.0,29.80,SSW,211,10.0,11.0,83,1.76,,,0.06,Wunderground v.1.15,2013-07-20 02:00:00,
2013-07-19 21:03:00,74.5,69.7,29.78,SSE,168,10.0,11.0,85,0.90,,,0.15,Wunderground v.1.15,2013-07-20 02:03:00,
2013-07-19 21:04:00,74.1,69.3,29.78,SSW,210,10.0,11.0,85,0.56,,,0.16,Wunderground v.1.15,2013-07-20 02:04:00,
2013-07-19 21:05:00,73.8,69.0,29.78,SSW,212,9.0,11.0,85,0.38,,,0.16,Wunderground v.1.15,2013-07-20 02:05:00,
2013-07-19 21:08:00,72.9,68.8,29.77,SSW,196,7.0,11.0,87,0.13,,,0.16,Wunderground v.1.15,2013-07-20 02:08:00,
2013-07-19 21:09:00,72.7,68.6,29.78,SSW,202,7.0,11.0,87,0.12,,,0.17,Wunderground v.1.15,2013-07-20 02:09:00,
2013-07-19 21:10:00,72.5,68.7,29.77,SSW,201,6.0,6.0,88,0.12,,,0.17,Wunderground v.1.15,2013-07-20 02:10:00,
2013-07-19 21:12:00,72.2,68.4,29.77,SSW,201,5.0,6.0,88,0.12,,,0.17,Wunderground v.1.15,2013-07-20 02:12:00,
2013-07-19 21:17:00,71.6,68.5,29.77,SSW,201,2.0,6.0,90,0.07,,,0.17,Wunderground v.1.15,2013-07-20 02:17:00,
2013-07-19 21:18:00,71.5,68.4,29.77,SSW,201,1.0,6.0,90,0.06,,,0.17,Wunderground v.1.15,2013-07-20 02:18:00,
2013-07-19 21:19:00,71.5,68.4,29.77,SSW,201,1.0,6.0,90,0.06,,,0.17,Wunderground v.1.15,2013-07-20 02:19:00,
2013-07-19 21:20:00,71.5,68.4,29.77,SSW,201,0.0,0.0,90,0.05,,,0.17,Wunderground v.1.15,2013-07-20 02:20:00,
2013-07-19 21:23:00,71.3,68.5,29.77,SSW,201,0.0,0.0,91,0.04,,,0.17,Wunderground v.1.15,2013-07-20 02:23:00,
2013-07-19 21:25:00,71.3,68.5,29.77,SSW,201,0.0,0.0,91,0.04,,,0.17,Wunderground v.1.15,2013-07-20 02:25:00,
2013-07-19 21:26:00,71.3,68.9,29.77,SSW,201,0.0,0.0,92,0.00,,,0.17,Wunderground v.1.15,2013-07-20 02:26:00,
2013-07-19 21:27:00,71.2,68.8,29.77,SSW,201,0.0,1.0,92,0.00,,,0.17,Wunderground v.1.15,2013-07-20 02:27:00,
2013-07-19 21:29:00,71.2,68.8,29.77,SSW,201,0.0,1.0,92,0.00,,,0.17,Wunderground v.1.15,2013-07-20 02:29:00,
2013-07-19 21:30:00,71.2,68.8,29.77,SSW,201,0.0,0.0,92,0.00,,,0.17,Wunderground v.1.15,2013-07-20 02:30:00,
2013-07-19 21:31:00,71.1,68.7,29.77,SSW,201,0.0,0.0,92,0.00,,,0.17,Wunderground v.1.15,2013-07-20 02:31:00,
2013-07-19 21:34:00,71.1,68.7,29.77,SSW,201,0.0,0.0,92,0.00,,,0.17,Wunderground v.1.15,2013-07-20 02:34:00,
2013-07-19 21:37:00,71.0,68.6,29.77,SSW,201,0.0,0.0,92,0.00,,,0.17,Wunderground v.1.15,2013-07-20 02:37:00,
2013-07-19 21:39:00,70.9,68.5,29.77,SSW,201,0.0,0.0,92,0.00,,,0.17,Wunderground v.1.15,2013-07-20 02:39:00,
2013-07-19 21:40:00,70.9,68.8,29.77,SSW,201,0.0,0.0,93,0.00,,,0.17,Wunderground v.1.15,2013-07-20 02:40:00,
2013-07-19 21:42:00,70.9,68.8,29.77,SSW,201,0.0,0.0,93,0.00,,,0.17,Wunderground v.1.15,2013-07-20 02:42:00,
2013-07-19 21:46:00,71.0,68.9,29.77,SSW,201,0.0,0.0,93,0.00,,,0.17,Wunderground v.1.15,2013-07-20 02:46:00,
2013-07-19 21:47:00,71.0,68.9,29.77,SSW,201,0.0,0.0,93,0.00,,,0.17,Wunderground v.1.15,2013-07-20 02:47:00,
2013-07-19 21:49:00,71.1,69.0,29.77,SSW,201,0.0,0.0,93,0.00,,,0.17,Wunderground v.1.15,2013-07-20 02:49:00,
2013-07-19 21:51:00,71.1,69.0,29.77,SSW,201,0.0,0.0,93,0.00,,,0.17,Wunderground v.1.15,2013-07-20 02:51:00,
2013-07-19 21:52:00,71.1,69.0,29.77,SSW,201,0.0,0.0,93,0.00,,,0.17,Wunderground v.1.15,2013-07-20 02:52:00,
2013-07-19 21:54:00,71.1,69.0,29.77,SSW,201,0.0,0.0,93,0.00,,,0.17,Wunderground v.1.15,2013-07-20 02:54:00,
2013-07-19 21:57:00,71.1,69.0,29.77,SSW,201,0.0,0.0,93,0.00,,,0.17,Wunderground v.1.15,2013-07-20 02:57:00,
2013-07-19 21:58:00,71.1,69.0,29.77,SSW,201,0.0,0.0,93,0.00,,,0.17,Wunderground v.1.15,2013-07-20 02:58:00,
2013-07-19 21:59:00,71.1,69.0,29.77,SSW,201,0.0,0.0,93,0.00,,,0.17,Wunderground v.1.15,2013-07-20 02:59:00,
2013-07-19 22:03:00,71.0,68.9,29.77,SSW,201,0.0,0.0,93,0.00,,,0.17,Wunderground v.1.15,2013-07-20 03:03:00,
2013-07-19 22:04:00,71.0,69.2,29.77,SSW,201,0.0,0.0,94,0.00,,,0.17,Wunderground v.1.15,2013-07-20 03:04:00,
2013-07-19 22:05:00,71.0,69.2,29.77,SSW,201,0.0,0.0,94,0.00,,,0.17,Wunderground v.1.15,2013-07-20 03:05:00,
2013-07-19 22:07:00,71.0,69.2,29.77,SSW,201,0.0,0.0,94,0.00,,,0.17,Wunderground v.1.15,2013-07-20 03:07:00,
2013-07-19 22:09:00,71.0,69.2,29.77,SSW,201,0.0,0.0,94,0.00,,,0.17,Wunderground v.1.15,2013-07-20 03:09:00,
2013-07-19 22:11:00,71.0,69.2,29.77,SSW,201,0.0,0.0,94,0.00,,,0.17,Wunderground v.1.15,2013-07-20 03:11:00,
2013-07-19 22:12:00,71.0,69.2,29.77,SSW,201,0.0,0.0,94,0.00,,,0.17,Wunderground v.1.15,2013-07-20 03:12:00,
2013-07-19 22:14:00,71.0,69.2,29.77,SSW,201,0.0,0.0,94,0.00,,,0.17,Wunderground v.1.15,2013-07-20 03:14:00,
2013-07-19 22:16:00,70.9,68.8,29.77,SSW,201,0.0,0.0,93,0.00,,,0.17,Wunderground v.1.15,2013-07-20 03:16:00,
2013-07-19 22:17:00,70.9,69.1,29.77,SSW,201,0.0,0.0,94,0.00,,,0.17,Wunderground v.1.15,2013-07-20 03:17:00,
2013-07-19 22:18:00,70.8,69.0,29.77,SSW,201,0.0,0.0,94,0.00,,,0.17,Wunderground v.1.15,2013-07-20 03:18:00,
2013-07-19 22:20:00,70.8,69.0,29.77,SSW,201,0.0,0.0,94,0.00,,,0.17,Wunderground v.1.15,2013-07-20 03:20:00,
2013-07-19 22:22:00,70.8,69.0,29.77,SSW,201,0.0,0.0,94,0.00,,,0.17,Wunderground v.1.15,2013-07-20 03:22:00,
2013-07-19 22:23:00,70.8,69.0,29.77,SSW,201,0.0,0.0,94,0.00,,,0.17,Wunderground v.1.15,2013-07-20 03:23:00,
2013-07-19 22:27:00,70.8,69.0,29.77,SSW,201,0.0,0.0,94,0.00,,,0.17,Wunderground v.1.15,2013-07-20 03:27:00,
2013-07-19 22:28:00,70.8,69.0,29.77,SSW,201,0.0,0.0,94,0.00,,,0.17,Wunderground v.1.15,2013-07-20 03:28:00,
2013-07-19 22:29:00,70.9,69.1,29.77,SSW,201,0.0,0.0,94,0.00,,,0.17,Wunderground v.1.15,2013-07-20 03:29:00,
2013-07-19 22:30:00,70.9,69.1,29.77,SSW,201,0.0,0.0,94,0.00,,,0.17,Wunderground v.1.15,2013-07-20 03:30:00,
2013-07-19 22:34:00,70.9,69.1,29.77,SSW,201,0.0,0.0,94,0.00,,,0.17,Wunderground v.1.15,2013-07-20 03:34:00,
2013-07-19 22:35:00,70.9,69.1,29.77,SSW,201,0.0,0.0,94,0.00,,,0.17,Wunderground v.1.15,2013-07-20 03:35:00,
2013-07-19 22:38:00,70.8,69.0,29.78,SSW,201,0.0,0.0,94,0.00,,,0.17,Wunderground v.1.15,2013-07-20 03:38:00,
2013-07-19 22:40:00,70.8,69.0,29.78,SSW,201,0.0,0.0,94,0.00,,,0.17,Wunderground v.1.15,2013-07-20 03:40:00,
2013-07-19 22:42:00,70.7,68.9,29.78,SSW,201,0.0,0.0,94,0.00,,,0.17,Wunderground v.1.15,2013-07-20 03:42:00,
2013-07-19 22:43:00,70.7,68.9,29.78,SSW,201,0.0,0.0,94,0.00,,,0.17,Wunderground v.1.15,2013-07-20 03:43:00,
2013-07-19 22:48:00,70.6,68.8,29.78,SSW,201,0.0,0.0,94,0.00,,,0.17,Wunderground v.1.15,2013-07-20 03:48:00,
2013-07-19 22:49:00,70.6,68.8,29.78,SSW,201,0.0,0.0,94,0.00,,,0.17,Wunderground v.1.15,2013-07-20 03:49:00,
2013-07-19 22:50:00,70.5,68.7,29.78,SSW,201,0.0,0.0,94,0.00,,,0.17,Wunderground v.1.15,2013-07-20 03:50:00,
2013-07-19 22:53:00,70.4,68.6,29.78,SSW,201,0.0,0.0,94,0.00,,,0.17,Wunderground v.1.15,2013-07-20 03:53:00,
2013-07-19 22:55:00,70.4,68.6,29.77,SSW,201,0.0,0.0,94,0.00,,,0.17,Wunderground v.1.15,2013-07-20 03:55:00,
2013-07-19 22:56:00,70.4,68.6,29.77,SSW,201,0.0,0.0,94,0.00,,,0.17,Wunderground v.1.15,2013-07-20 03:56:00,
2013-07-19 22:57:00,70.4,68.6,29.77,SSW,201,0.0,0.0,94,0.00,,,0.17,Wunderground v.1.15,2013-07-20 03:57:00,
2013-07-19 23:01:00,70.3,68.5,29.77,SSW,201,0.0,0.0,94,0.00,,,0.17,Wunderground v.1.15,2013-07-20 04:01:00,
2013-07-19 23:02:00,70.3,68.5,29.77,SSW,201,0.0,0.0,94,0.00,,,0.17,Wunderground v.1.15,2013-07-20 04:02:00,
2013-07-19 23:03:00,70.3,68.5,29.77,SSW,201,0.0,0.0,94,0.00,,,0.17,Wunderground v.1.15,2013-07-20 04:03:00,
2013-07-19 23:04:00,70.3,68.5,29.77,SSW,201,0.0,0.0,94,0.00,,,0.17,Wunderground v.1.15,2013-07-20 04:04:00,
2013-07-19 23:08:00,70.3,68.5,29.77,SSW,201,0.0,0.0,94,0.00,,,0.17,Wunderground v.1.15,2013-07-20 04:08:00,
2013-07-19 23:09:00,70.2,68.4,29.77,SSW,201,0.0,0.0,94,0.00,,,0.17,Wunderground v.1.15,2013-07-20 04:09:00,
2013-07-19 23:10:00,70.2,68.4,29.77,SSW,201,0.0,1.0,94,0.00,,,0.17,Wunderground v.1.15,2013-07-20 04:10:00,
2013-07-19 23:11:00,70.2,68.4,29.77,SSW,201,0.0,1.0,94,0.00,,,0.17,Wunderground v.1.15,2013-07-20 04:11:00,
2013-07-19 23:16:00,70.2,68.4,29.77,SSW,201,0.0,1.0,94,0.00,,,0.17,Wunderground v.1.15,2013-07-20 04:16:00,
2013-07-19 23:17:00,70.2,68.4,29.78,SSW,201,0.0,1.0,94,0.00,,,0.17,Wunderground v.1.15,2013-07-20 04:17:00,
2013-07-19 23:18:00,70.2,68.4,29.78,SSW,201,0.0,1.0,94,0.00,,,0.17,Wunderground v.1.15,2013-07-20 04:18:00,
2013-07-19 23:19:00,70.2,68.4,29.77,SSW,201,0.0,1.0,94,0.00,,,0.17,Wunderground v.1.15,2013-07-20 04:19:00,
2013-07-19 23:21:00,70.2,68.4,29.78,SSW,201,0.0,0.0,94,0.00,,,0.17,Wunderground v.1.15,2013-07-20 04:21:00,
2013-07-19 23:24:00,70.1,68.3,29.78,SSW,201,0.0,0.0,94,0.00,,,0.17,Wunderground v.1.15,2013-07-20 04:24:00,
2013-07-19 23:27:00,70.1,68.3,29.78,SSW,201,0.0,0.0,94,0.00,,,0.17,Wunderground v.1.15,2013-07-20 04:27:00,
2013-07-19 23:30:00,70.1,68.3,29.78,SSW,201,0.0,0.0,94,0.00,,,0.17,Wunderground v.1.15,2013-07-20 04:30:00,
2013-07-19 23:32:00,70.1,68.3,29.78,SSW,201,0.0,0.0,94,0.00,,,0.17,Wunderground v.1.15,2013-07-20 04:32:00,
2013-07-19 23:34:00,70.1,68.3,29.78,SSW,201,0.0,0.0,94,0.00,,,0.17,Wunderground v.1.15,2013-07-20 04:34:00,
2013-07-19 23:35:00,70.1,68.3,29.78,SSW,201,0.0,0.0,94,0.00,,,0.17,Wunderground v.1.15,2013-07-20 04:35:00,
2013-07-19 23:36:00,70.1,68.3,29.78,SSW,201,0.0,0.0,94,0.00,,,0.17,Wunderground v.1.15,2013-07-20 04:36:00,
2013-07-19 23:37:00,70.1,68.3,29.78,SSW,201,0.0,0.0,94,0.00,,,0.17,Wunderground v.1.15,2013-07-20 04:37:00,
2013-07-19 23:41:00,70.1,68.3,29.78,SSW,201,0.0,0.0,94,0.00,,,0.17,Wunderground v.1.15,2013-07-20 04:41:00,
2013-07-19 23:42:00,70.1,68.3,29.78,SSW,201,0.0,0.0,94,0.00,,,0.17,Wunderground v.1.15,2013-07-20 04:42:00,
2013-07-19 23:43:00,70.1,68.3,29.78,SSW,201,0.0,0.0,94,0.00,,,0.17,Wunderground v.1.15,2013-07-20 04:43:00,
2013-07-19 23:46:00,70.1,68.3,29.78,SSW,201,0.0,0.0,94,0.00,,,0.17,Wunderground v.1.15,2013-07-20 04:46:00,
2013-07-19 23:47:00,70.1,68.3,29.78,SSW,201,0.0,0.0,94,0.00,,,0.17,Wunderground v.1.15,2013-07-20 04:47:00,
2013-07-19 23:52:00,70.0,68.2,29.78,SSW,201,0.0,0.0,94,0.00,,,0.17,Wunderground v.1.15,2013-07-20 04:52:00,
2013-07-19 23:54:00,70.0,67.9,29.78,SSW,201,0.0,0.0,93,0.00,,,0.17,Wunderground v.1.15,2013-07-20 04:54:00,
2013-07-19 23:57:00,69.9,67.8,29.78,SSW,201,0.0,0.0,93,0.00,,,0.17,Wunderground v.1.15,2013-07-20 04:57:00,
2013-07-19 23:58:00,69.9,68.1,29.78,SSW,201,0.0,0.0,94,0.00,,,0.17,Wunderground v.1.15,2013-07-20 04:58:00,
2013-07-19 23:59:00,69.9,68.1,29.78,SSW,201,0.0,0.0,94,0.00,,,0.17,Wunderground v.1.15,2013-07-20 04:59:00,